Wetterdaten: Samstag, 18.02.2023
Datum Zeit Temp. Aussen Temp. o. S. Temp +5cm Feuchte Auss Luftdruck Regen Sonnenschein Regendauer Solar Windben Empfang
18.02.2023 00:00 11,1 C 10,6 C 7,2 C 92 % 1023,5 hPa 0,0 l/m 0 min 0 min 0 W/m 16,1 km/h (3 Bft) 100,00 %
18.02.2023 00:02 11,1 C 10,6 C 7,2 C 92 % 1023,5 hPa 0,0 l/m 0 min 0 min 0 W/m 16,1 km/h (3 Bft) 97,73 %
18.02.2023 00:04 11,1 C 10,6 C 7,2 C 92 % 1023,5 hPa 0,0 l/m 0 min 0 min 0 W/m 19,3 km/h (3 Bft) 100,00 %
18.02.2023 00:07 11,1 C 10,6 C 7,2 C 92 % 1023,4 hPa 0,0 l/m 0 min 0 min 0 W/m 16,1 km/h (3 Bft) 98,61 %
18.02.2023 00:08 11,1 C 10,6 C 7,2 C 92 % 1023,4 hPa 0,0 l/m 0 min 0 min 0 W/m 12,9 km/h (3 Bft) 100,00 %
18.02.2023 00:12 11,1 C 10,6 C 7,2 C 92 % 1023,5 hPa 0,0 l/m 0 min 0 min 0 W/m 12,9 km/h (3 Bft) 95,56 %
18.02.2023 00:14 11,1 C 10,6 C 7,2 C 92 % 1023,5 hPa 0,0 l/m 0 min 0 min 0 W/m 29,0 km/h (5 Bft) 98,11 %
18.02.2023 00:16 11,1 C 10,6 C 7,2 C 92 % 1023,5 hPa 0,0 l/m 0 min 0 min 0 W/m 16,1 km/h (3 Bft) 100,00 %
18.02.2023 00:18 11,1 C 10,6 C 7,2 C 92 % 1023,5 hPa 0,0 l/m 0 min 0 min 0 W/m 12,9 km/h (3 Bft) 97,87 %
18.02.2023 00:20 11,1 C 10,6 C 7,2 C 92 % 1023,6 hPa 0,0 l/m 0 min 0 min 0 W/m 19,3 km/h (3 Bft) 97,87 %
18.02.2023 00:22 11,1 C 10,6 C 7,2 C 92 % 1023,5 hPa 0,0 l/m 0 min 0 min 0 W/m 22,5 km/h (4 Bft) 100,00 %
18.02.2023 00:24 11,1 C 10,6 C 7,2 C 92 % 1023,5 hPa 0,0 l/m 0 min 0 min 0 W/m 6,4 km/h (2 Bft) 72,34 %
18.02.2023 00:26 11,1 C 10,6 C 7,2 C 92 % 1023,5 hPa 0,0 l/m 0 min 0 min 0 W/m 22,5 km/h (4 Bft) 80,00 %
18.02.2023 00:28 11,1 C 10,6 C 7,2 C 92 % 1023,4 hPa 0,0 l/m 0 min 0 min 0 W/m 16,1 km/h (3 Bft) 100,00 %
18.02.2023 00:30 11,1 C 10,6 C 7,2 C 92 % 1023,5 hPa 0,0 l/m 0 min 0 min 0 W/m 6,4 km/h (2 Bft) 97,87 %
18.02.2023 00:32 11,1 C 10,6 C 7,2 C 92 % 1023,5 hPa 0,0 l/m 0 min 0 min 0 W/m 19,3 km/h (3 Bft) 100,00 %
18.02.2023 00:34 11,1 C 10,6 C 7,2 C 92 % 1023,4 hPa 0,0 l/m 0 min 0 min 0 W/m 19,3 km/h (3 Bft) 97,87 %
18.02.2023 00:36 11,1 C 10,6 C 7,2 C 92 % 1023,4 hPa 0,0 l/m 0 min 0 min 0 W/m 12,9 km/h (3 Bft) 95,74 %
18.02.2023 00:38 11,1 C 10,6 C 7,2 C 92 % 1023,4 hPa 0,0 l/m 0 min 0 min 0 W/m 9,7 km/h (2 Bft) 97,87 %
18.02.2023 00:40 11,1 C 10,6 C 7,2 C 92 % 1023,4 hPa 0,0 l/m 0 min 0 min 0 W/m 19,3 km/h (3 Bft) 93,48 %
18.02.2023 00:42 11,1 C 10,6 C 7,2 C 92 % 1023,3 hPa 0,0 l/m 0 min 0 min 0 W/m 16,1 km/h (3 Bft) 89,36 %
18.02.2023 00:44 11,1 C 10,6 C 7,2 C 92 % 1023,3 hPa 0,0 l/m 0 min 0 min 0 W/m 12,9 km/h (3 Bft) 93,62 %
18.02.2023 00:46 11,1 C 10,6 C 7,2 C 92 % 1023,3 hPa 0,0 l/m 0 min 0 min 0 W/m 12,9 km/h (3 Bft) 93,62 %
18.02.2023 00:48 11,0 C 10,6 C 7,2 C 92 % 1023,4 hPa 0,0 l/m 0 min 0 min 0 W/m 19,3 km/h (3 Bft) 91,49 %
18.02.2023 00:50 11,0 C 10,6 C 7,2 C 92 % 1023,3 hPa 0,0 l/m 0 min 0 min 0 W/m 16,1 km/h (3 Bft) 93,62 %
18.02.2023 00:52 11,0 C 10,6 C 7,2 C 92 % 1023,3 hPa 0,0 l/m 0 min 0 min 0 W/m 12,9 km/h (3 Bft) 93,48 %
18.02.2023 00:54 11,0 C 10,6 C 7,2 C 92 % 1023,3 hPa 0,0 l/m 0 min 0 min 0 W/m 16,1 km/h (3 Bft) 91,49 %
18.02.2023 00:56 11,0 C 10,6 C 7,2 C 93 % 1023,3 hPa 0,0 l/m 0 min 0 min 0 W/m 12,9 km/h (3 Bft) 91,67 %
18.02.2023 00:58 11,0 C 10,6 C 7,2 C 93 % 1023,3 hPa 0,0 l/m 0 min 0 min 0 W/m 12,9 km/h (3 Bft) 93,62 %
18.02.2023 01:00 11,0 C 10,6 C 7,2 C 93 % 1023,3 hPa 0,0 l/m 0 min 0 min 0 W/m 16,1 km/h (3 Bft) 93,62 %
18.02.2023 01:02 11,0 C 10,6 C 7,2 C 93 % 1023,3 hPa 0,0 l/m 0 min 0 min 0 W/m 9,7 km/h (2 Bft) 91,49 %
18.02.2023 01:04 11,0 C 10,6 C 7,2 C 93 % 1023,4 hPa 0,0 l/m 0 min 0 min 0 W/m 16,1 km/h (3 Bft) 94,87 %
18.02.2023 01:06 11,0 C 10,6 C 7,2 C 93 % 1023,2 hPa 0,0 l/m 0 min 0 min 0 W/m 19,3 km/h (3 Bft) 89,66 %
18.02.2023 01:08 11,0 C 10,6 C 7,2 C 93 % 1023,1 hPa 0,0 l/m 0 min 0 min 0 W/m 19,3 km/h (3 Bft) 94,29 %
18.02.2023 01:10 11,0 C 10,6 C 7,2 C 93 % 1023,1 hPa 0,0 l/m 0 min 0 min 0 W/m 19,3 km/h (3 Bft) 91,49 %
18.02.2023 01:12 11,0 C 10,6 C 7,2 C 93 % 1023,1 hPa 0,0 l/m 0 min 0 min 0 W/m 16,1 km/h (3 Bft) 93,62 %
18.02.2023 01:14 11,0 C 10,6 C 7,2 C 93 % 1023,2 hPa 0,0 l/m 0 min 0 min 0 W/m 22,5 km/h (4 Bft) 93,62 %
18.02.2023 01:16 11,0 C 10,6 C 7,2 C 93 % 1023,2 hPa 0,0 l/m 0 min 0 min 0 W/m 12,9 km/h (3 Bft) 91,49 %
18.02.2023 01:18 11,0 C 10,6 C 7,2 C 93 % 1023,1 hPa 0,0 l/m 0 min 0 min 0 W/m 16,1 km/h (3 Bft) 93,62 %
18.02.2023 01:20 11,0 C 10,6 C 7,2 C 93 % 1023,1 hPa 0,0 l/m 0 min 0 min 0 W/m 19,3 km/h (3 Bft) 95,65 %
18.02.2023 01:22 11,0 C 10,6 C 7,2 C 93 % 1023,1 hPa 0,0 l/m 0 min 0 min 0 W/m 19,3 km/h (3 Bft) 97,92 %
18.02.2023 01:24 11,0 C 10,6 C 7,2 C 93 % 1023,1 hPa 0,0 l/m 0 min 0 min 0 W/m 22,5 km/h (4 Bft) 97,87 %
18.02.2023 01:26 11,0 C 10,0 C 7,2 C 93 % 1023,1 hPa 0,0 l/m 0 min 0 min 0 W/m 19,3 km/h (3 Bft) 97,87 %
18.02.2023 01:28 11,0 C 10,0 C 7,2 C 93 % 1023,0 hPa 0,0 l/m 0 min 0 min 0 W/m 19,3 km/h (3 Bft) 97,83 %
18.02.2023 01:30 11,0 C 10,0 C 7,2 C 93 % 1023,0 hPa 0,0 l/m 0 min 0 min 0 W/m 22,5 km/h (4 Bft) 97,87 %
18.02.2023 01:32 11,0 C 10,0 C 7,2 C 93 % 1023,1 hPa 0,0 l/m 0 min 0 min 0 W/m 19,3 km/h (3 Bft) 97,87 %
18.02.2023 01:34 10,9 C 10,0 C 7,2 C 93 % 1023,0 hPa 0,0 l/m 0 min 0 min 0 W/m 19,3 km/h (3 Bft) 100,00 %
18.02.2023 01:36 10,9 C 10,0 C 7,2 C 93 % 1023,1 hPa 0,0 l/m 0 min 0 min 0 W/m 19,3 km/h (3 Bft) 97,87 %
18.02.2023 01:38 10,9 C 10,6 C 7,2 C 93 % 1023,0 hPa 0,0 l/m 0 min 0 min 0 W/m 25,7 km/h (4 Bft) 97,87 %
18.02.2023 01:40 10,9 C 10,0 C 7,2 C 93 % 1023,1 hPa 0,0 l/m 0 min 0 min 0 W/m 19,3 km/h (3 Bft) 100,00 %
18.02.2023 01:42 10,9 C 10,0 C 7,2 C 93 % 1022,9 hPa 0,0 l/m 0 min 0 min 0 W/m 16,1 km/h (3 Bft) 100,00 %
18.02.2023 01:44 10,9 C 10,0 C 7,2 C 93 % 1023,0 hPa 0,0 l/m 0 min 0 min 0 W/m 22,5 km/h (4 Bft) 100,00 %
18.02.2023 01:46 10,9 C 10,0 C 7,2 C 93 % 1023,0 hPa 0,0 l/m 0 min 0 min 0 W/m 19,3 km/h (3 Bft) 100,00 %
18.02.2023 01:48 10,9 C 10,0 C 7,2 C 93 % 1022,9 hPa 0,0 l/m 0 min 0 min 0 W/m 19,3 km/h (3 Bft) 100,00 %
18.02.2023 01:50 10,9 C 10,0 C 7,2 C 93 % 1022,8 hPa 0,0 l/m 0 min 0 min 0 W/m 16,1 km/h (3 Bft) 100,00 %
18.02.2023 01:52 10,9 C 10,0 C 7,2 C 93 % 1022,8 hPa 0,0 l/m 0 min 0 min 0 W/m 16,1 km/h (3 Bft) 95,65 %
18.02.2023 01:54 10,9 C 10,0 C 7,2 C 93 % 1022,8 hPa 0,0 l/m 0 min 0 min 0 W/m 19,3 km/h (3 Bft) 100,00 %
18.02.2023 01:56 10,9 C 10,0 C 7,2 C 93 % 1022,8 hPa 0,0 l/m 0 min 0 min 0 W/m 16,1 km/h (3 Bft) 100,00 %
18.02.2023 01:58 10,9 C 10,0 C 7,2 C 93 % 1022,8 hPa 0,0 l/m 0 min 0 min 0 W/m 19,3 km/h (3 Bft) 97,87 %
18.02.2023 02:00 10,9 C 10,0 C 7,2 C 93 % 1022,8 hPa 0,0 l/m 0 min 0 min 0 W/m 22,5 km/h (4 Bft) 97,22 %
18.02.2023 02:02 10,9 C 10,0 C 7,2 C 93 % 1022,7 hPa 0,0 l/m 0 min 0 min 0 W/m 12,9 km/h (3 Bft) 100,00 %
18.02.2023 02:04 10,9 C 10,0 C 7,2 C 93 % 1022,7 hPa 0,0 l/m 0 min 0 min 0 W/m 22,5 km/h (4 Bft) 100,00 %
18.02.2023 02:06 10,9 C 10,0 C 7,2 C 93 % 1022,7 hPa 0,0 l/m 0 min 0 min 0 W/m 19,3 km/h (3 Bft) 100,00 %
18.02.2023 02:08 10,9 C 10,0 C 7,2 C 93 % 1022,7 hPa 0,0 l/m 0 min 0 min 0 W/m 16,1 km/h (3 Bft) 100,00 %
18.02.2023 02:10 10,9 C 10,0 C 7,2 C 93 % 1022,7 hPa 0,0 l/m 0 min 0 min 0 W/m 19,3 km/h (3 Bft) 100,00 %
18.02.2023 02:14 10,9 C 10,0 C 7,2 C 93 % 1022,6 hPa 0,0 l/m 0 min 0 min 0 W/m 12,9 km/h (3 Bft) 93,33 %
18.02.2023 02:16 10,9 C 10,0 C 7,2 C 93 % 1022,6 hPa 0,0 l/m 0 min 0 min 0 W/m 16,1 km/h (3 Bft) 100,00 %
18.02.2023 02:18 10,9 C 10,0 C 7,2 C 93 % 1022,7 hPa 0,0 l/m 0 min 0 min 0 W/m 22,5 km/h (4 Bft) 100,00 %
18.02.2023 02:20 10,9 C 10,0 C 7,2 C 93 % 1022,6 hPa 0,0 l/m 0 min 0 min 0 W/m 16,1 km/h (3 Bft) 97,87 %
18.02.2023 02:22 10,8 C 10,0 C 7,2 C 93 % 1022,6 hPa 0,0 l/m 0 min 0 min 0 W/m 12,9 km/h (3 Bft) 100,00 %
18.02.2023 02:24 10,8 C 10,0 C 7,2 C 93 % 1022,6 hPa 0,0 l/m 0 min 0 min 0 W/m 16,1 km/h (3 Bft) 100,00 %
18.02.2023 02:26 10,8 C 10,0 C 7,2 C 93 % 1022,7 hPa 0,0 l/m 0 min 0 min 0 W/m 16,1 km/h (3 Bft) 100,00 %
18.02.2023 02:28 10,8 C 10,0 C 7,2 C 93 % 1022,6 hPa 0,0 l/m 0 min 0 min 0 W/m 12,9 km/h (3 Bft) 100,00 %
18.02.2023 02:30 10,8 C 10,0 C 7,2 C 93 % 1022,6 hPa 0,0 l/m 0 min 0 min 0 W/m 19,3 km/h (3 Bft) 70,21 %
18.02.2023 02:32 10,8 C 10,0 C 7,2 C 93 % 1022,6 hPa 0,0 l/m 0 min 0 min 0 W/m 12,9 km/h (3 Bft) 86,96 %
18.02.2023 02:34 10,8 C 10,0 C 7,2 C 93 % 1022,5 hPa 0,0 l/m 0 min 0 min 0 W/m 16,1 km/h (3 Bft) 100,00 %
18.02.2023 02:36 10,8 C 10,0 C 7,2 C 93 % 1022,5 hPa 0,0 l/m 0 min 0 min 0 W/m 16,1 km/h (3 Bft) 97,14 %
18.02.2023 02:38 10,8 C 10,0 C 7,2 C 93 % 1022,4 hPa 0,0 l/m 0 min 0 min 0 W/m 16,1 km/h (3 Bft) 97,87 %
18.02.2023 02:40 10,8 C 10,0 C 7,2 C 93 % 1022,4 hPa 0,0 l/m 0 min 0 min 0 W/m 16,1 km/h (3 Bft) 97,87 %
18.02.2023 02:42 10,8 C 10,0 C 7,2 C 93 % 1022,4 hPa 0,0 l/m 0 min 0 min 0 W/m 19,3 km/h (3 Bft) 97,87 %
18.02.2023 02:44 10,8 C 10,0 C 6,7 C 93 % 1022,3 hPa 0,0 l/m 0 min 0 min 0 W/m 16,1 km/h (3 Bft) 97,87 %
18.02.2023 02:46 10,8 C 10,0 C 6,7 C 93 % 1022,2 hPa 0,0 l/m 0 min 0 min 0 W/m 12,9 km/h (3 Bft) 97,83 %
18.02.2023 02:48 10,8 C 10,0 C 6,7 C 93 % 1022,2 hPa 0,0 l/m 0 min 0 min 0 W/m 16,1 km/h (3 Bft) 97,87 %
18.02.2023 02:50 10,8 C 10,0 C 7,2 C 93 % 1022,3 hPa 0,0 l/m 0 min 0 min 0 W/m 9,7 km/h (2 Bft) 95,74 %
18.02.2023 02:52 10,8 C 10,0 C 7,2 C 93 % 1022,3 hPa 0,0 l/m 0 min 0 min 0 W/m 16,1 km/h (3 Bft) 97,87 %
18.02.2023 02:54 10,8 C 10,0 C 7,2 C 93 % 1022,2 hPa 0,0 l/m 0 min 0 min 0 W/m 12,9 km/h (3 Bft) 97,87 %
18.02.2023 02:56 10,8 C 10,0 C 7,2 C 93 % 1022,1 hPa 0,0 l/m 0 min 0 min 0 W/m 25,7 km/h (4 Bft) 96,30 %
18.02.2023 02:58 10,8 C 10,0 C 6,7 C 93 % 1022,2 hPa 0,0 l/m 0 min 0 min 0 W/m 6,4 km/h (2 Bft) 97,87 %
18.02.2023 03:00 10,8 C 10,0 C 6,7 C 93 % 1022,1 hPa 0,0 l/m 0 min 0 min 0 W/m 12,9 km/h (3 Bft) 93,75 %
18.02.2023 03:02 10,8 C 10,0 C 6,7 C 94 % 1022,2 hPa 0,0 l/m 0 min 0 min 0 W/m 6,4 km/h (2 Bft) 97,87 %
18.02.2023 03:04 10,8 C 10,0 C 6,7 C 94 % 1022,2 hPa 0,0 l/m 0 min 0 min 0 W/m 16,1 km/h (3 Bft) 97,87 %
18.02.2023 03:06 10,8 C 10,0 C 6,7 C 94 % 1022,2 hPa 0,0 l/m 0 min 0 min 0 W/m 22,5 km/h (4 Bft) 97,87 %
18.02.2023 03:08 10,8 C 10,0 C 6,7 C 94 % 1022,2 hPa 0,0 l/m 0 min 0 min 0 W/m 12,9 km/h (3 Bft) 100,00 %
18.02.2023 03:10 10,8 C 10,0 C 6,7 C 94 % 1022,2 hPa 0,0 l/m 0 min 0 min 0 W/m 19,3 km/h (3 Bft) 97,83 %
18.02.2023 03:12 10,7 C 10,0 C 6,7 C 94 % 1022,1 hPa 0,0 l/m 0 min 0 min 0 W/m 22,5 km/h (4 Bft) 97,87 %
18.02.2023 03:14 10,7 C 10,0 C 6,7 C 94 % 1022,0 hPa 0,0 l/m 0 min 0 min 0 W/m 19,3 km/h (3 Bft) 95,74 %
18.02.2023 03:16 10,7 C 10,0 C 6,7 C 94 % 1022,0 hPa 0,0 l/m 0 min 0 min 0 W/m 16,1 km/h (3 Bft) 97,87 %
18.02.2023 03:18 10,7 C 10,0 C 6,7 C 94 % 1022,0 hPa 0,0 l/m 0 min 0 min 0 W/m 25,7 km/h (4 Bft) 97,87 %
18.02.2023 03:20 10,7 C 10,0 C 6,7 C 94 % 1022,0 hPa 0,0 l/m 0 min 0 min 0 W/m 12,9 km/h (3 Bft) 98,15 %
18.02.2023 03:22 10,7 C 10,0 C 6,7 C 94 % 1021,9 hPa 0,0 l/m 0 min 0 min 0 W/m 16,1 km/h (3 Bft) 93,48 %
18.02.2023 03:24 10,7 C 10,0 C 6,7 C 94 % 1021,9 hPa 0,0 l/m 0 min 0 min 0 W/m 19,3 km/h (3 Bft) 97,87 %
18.02.2023 03:26 10,7 C 10,0 C 6,7 C 94 % 1021,8 hPa 0,0 l/m 0 min 0 min 0 W/m 19,3 km/h (3 Bft) 97,87 %
18.02.2023 03:28 10,7 C 10,0 C 6,7 C 94 % 1021,8 hPa 0,0 l/m 0 min 0 min 0 W/m 16,1 km/h (3 Bft) 97,87 %
18.02.2023 03:30 10,7 C 10,0 C 6,7 C 94 % 1021,8 hPa 0,0 l/m 0 min 0 min 0 W/m 19,3 km/h (3 Bft) 97,87 %
18.02.2023 03:32 10,7 C 10,0 C 6,7 C 94 % 1021,8 hPa 0,0 l/m 0 min 0 min 0 W/m 16,1 km/h (3 Bft) 94,29 %
18.02.2023 03:34 10,7 C 10,0 C 6,7 C 94 % 1021,7 hPa 0,0 l/m 0 min 0 min 0 W/m 16,1 km/h (3 Bft) 97,87 %
18.02.2023 03:36 10,7 C 10,0 C 6,7 C 94 % 1021,7 hPa 0,0 l/m 0 min 0 min 0 W/m 9,7 km/h (2 Bft) 91,49 %
18.02.2023 03:38 10,7 C 10,0 C 6,7 C 95 % 1021,7 hPa 0,0 l/m 0 min 0 min 0 W/m 12,9 km/h (3 Bft) 95,65 %
18.02.2023 03:40 10,6 C 10,0 C 6,7 C 95 % 1021,7 hPa 0,0 l/m 0 min 0 min 0 W/m 16,1 km/h (3 Bft) 93,75 %
18.02.2023 03:42 10,6 C 10,0 C 6,7 C 95 % 1021,7 hPa 0,0 l/m 0 min 0 min 0 W/m 12,9 km/h (3 Bft) 95,83 %
18.02.2023 03:44 10,6 C 10,0 C 6,7 C 95 % 1021,7 hPa 0,0 l/m 0 min 0 min 0 W/m 16,1 km/h (3 Bft) 95,74 %
18.02.2023 03:46 10,6 C 10,0 C 6,7 C 95 % 1021,7 hPa 0,0 l/m 0 min 0 min 0 W/m 9,7 km/h (2 Bft) 95,74 %
18.02.2023 03:48 10,6 C 10,0 C 6,7 C 95 % 1021,8 hPa 0,0 l/m 0 min 0 min 0 W/m 16,1 km/h (3 Bft) 95,74 %
18.02.2023 03:50 10,6 C 10,0 C 6,7 C 95 % 1021,7 hPa 0,0 l/m 0 min 0 min 0 W/m 16,1 km/h (3 Bft) 95,65 %
18.02.2023 03:52 10,6 C 10,0 C 6,7 C 95 % 1021,7 hPa 0,0 l/m 0 min 0 min 0 W/m 16,1 km/h (3 Bft) 93,62 %
18.02.2023 03:54 10,6 C 10,0 C 6,7 C 95 % 1021,7 hPa 0,0 l/m 0 min 0 min 0 W/m 19,3 km/h (3 Bft) 95,74 %
18.02.2023 03:56 10,6 C 10,0 C 6,7 C 95 % 1021,6 hPa 0,0 l/m 0 min 0 min 0 W/m 12,9 km/h (3 Bft) 96,00 %
18.02.2023 03:58 10,6 C 10,0 C 6,7 C 95 % 1021,6 hPa 0,0 l/m 0 min 0 min 0 W/m 9,7 km/h (2 Bft) 95,74 %
18.02.2023 04:00 10,6 C 10,0 C 6,7 C 95 % 1021,6 hPa 0,0 l/m 0 min 0 min 0 W/m 22,5 km/h (4 Bft) 95,74 %
18.02.2023 04:02 10,6 C 10,0 C 6,7 C 95 % 1021,5 hPa 0,0 l/m 0 min 0 min 0 W/m 12,9 km/h (3 Bft) 95,65 %
18.02.2023 04:04 10,6 C 10,0 C 6,7 C 95 % 1021,5 hPa 0,0 l/m 0 min 0 min 0 W/m 12,9 km/h (3 Bft) 97,87 %
18.02.2023 04:06 10,6 C 10,0 C 6,7 C 95 % 1021,5 hPa 0,0 l/m 0 min 0 min 0 W/m 12,9 km/h (3 Bft) 95,74 %
18.02.2023 04:08 10,6 C 10,0 C 6,7 C 95 % 1021,5 hPa 0,0 l/m 0 min 0 min 0 W/m 19,3 km/h (3 Bft) 95,74 %
18.02.2023 04:10 10,6 C 10,0 C 6,7 C 95 % 1021,5 hPa 0,0 l/m 0 min 0 min 0 W/m 16,1 km/h (3 Bft) 97,87 %
18.02.2023 04:12 10,6 C 10,0 C 6,7 C 95 % 1021,4 hPa 0,0 l/m 0 min 0 min 0 W/m 12,9 km/h (3 Bft) 97,87 %
18.02.2023 04:14 10,6 C 10,0 C 6,7 C 95 % 1021,6 hPa 0,0 l/m 0 min 0 min 0 W/m 16,1 km/h (3 Bft) 97,87 %
18.02.2023 04:16 10,6 C 10,0 C 6,7 C 96 % 1021,4 hPa 0,0 l/m 0 min 0 min 0 W/m 22,5 km/h (4 Bft) 97,83 %
18.02.2023 04:18 10,6 C 10,0 C 6,7 C 96 % 1021,4 hPa 0,0 l/m 0 min 0 min 0 W/m 12,9 km/h (3 Bft) 97,87 %
18.02.2023 04:20 10,6 C 10,0 C 6,7 C 96 % 1021,4 hPa 0,0 l/m 0 min 0 min 0 W/m 6,4 km/h (2 Bft) 97,87 %
18.02.2023 04:22 10,6 C 10,0 C 6,7 C 96 % 1021,4 hPa 0,0 l/m 0 min 0 min 0 W/m 16,1 km/h (3 Bft) 97,87 %
18.02.2023 04:24 10,6 C 10,0 C 6,7 C 96 % 1021,3 hPa 0,0 l/m 0 min 0 min 0 W/m 16,1 km/h (3 Bft) 97,87 %
18.02.2023 04:26 10,5 C 10,0 C 6,7 C 96 % 1021,3 hPa 0,0 l/m 0 min 0 min 0 W/m 16,1 km/h (3 Bft) 100,00 %
18.02.2023 04:28 10,5 C 10,0 C 6,7 C 96 % 1021,3 hPa 0,0 l/m 0 min 0 min 0 W/m 19,3 km/h (3 Bft) 97,83 %
18.02.2023 04:30 10,5 C 10,0 C 6,7 C 96 % 1021,2 hPa 0,0 l/m 0 min 0 min 0 W/m 12,9 km/h (3 Bft) 97,87 %
18.02.2023 04:32 10,6 C 10,0 C 6,7 C 96 % 1021,2 hPa 0,0 l/m 0 min 0 min 0 W/m 16,1 km/h (3 Bft) 95,74 %
18.02.2023 04:34 10,6 C 10,0 C 6,7 C 96 % 1021,2 hPa 0,0 l/m 0 min 0 min 0 W/m 19,3 km/h (3 Bft) 95,74 %
18.02.2023 04:36 10,5 C 10,0 C 6,7 C 96 % 1021,1 hPa 0,0 l/m 0 min 0 min 0 W/m 16,1 km/h (3 Bft) 95,74 %
18.02.2023 04:38 10,5 C 10,0 C 6,7 C 96 % 1021,1 hPa 0,0 l/m 0 min 0 min 0 W/m 12,9 km/h (3 Bft) 97,87 %
18.02.2023 04:40 10,5 C 10,0 C 6,7 C 96 % 1021,1 hPa 0,0 l/m 0 min 0 min 0 W/m 16,1 km/h (3 Bft) 97,87 %
18.02.2023 04:42 10,5 C 10,0 C 6,7 C 96 % 1021,0 hPa 0,0 l/m 0 min 0 min 0 W/m 12,9 km/h (3 Bft) 97,83 %
18.02.2023 04:44 10,5 C 10,0 C 6,7 C 96 % 1021,0 hPa 0,0 l/m 0 min 0 min 0 W/m 12,9 km/h (3 Bft) 97,87 %
18.02.2023 04:46 10,5 C 10,0 C 6,7 C 96 % 1020,9 hPa 0,0 l/m 0 min 0 min 0 W/m 19,3 km/h (3 Bft) 95,74 %
18.02.2023 04:48 10,5 C 10,0 C 6,7 C 96 % 1020,9 hPa 0,0 l/m 0 min 0 min 0 W/m 32,2 km/h (5 Bft) 97,87 %
18.02.2023 04:50 10,5 C 10,0 C 6,7 C 96 % 1020,8 hPa 0,0 l/m 0 min 0 min 0 W/m 25,7 km/h (4 Bft) 97,87 %
18.02.2023 04:52 10,5 C 9,4 C 6,7 C 96 % 1020,7 hPa 0,0 l/m 0 min 0 min 0 W/m 19,3 km/h (3 Bft) 97,87 %
18.02.2023 04:54 10,5 C 9,4 C 6,7 C 96 % 1020,7 hPa 0,0 l/m 0 min 0 min 0 W/m 22,5 km/h (4 Bft) 97,83 %
18.02.2023 04:56 10,5 C 9,4 C 6,7 C 96 % 1020,8 hPa 0,0 l/m 0 min 2 min 0 W/m 29,0 km/h (5 Bft) 97,87 %
18.02.2023 04:58 10,4 C 9,4 C 6,7 C 96 % 1020,7 hPa 0,0 l/m 0 min 0 min 0 W/m 25,7 km/h (4 Bft) 97,87 %
18.02.2023 05:00 10,4 C 9,4 C 6,7 C 96 % 1020,7 hPa 0,0 l/m 0 min 0 min 0 W/m 22,5 km/h (4 Bft) 97,87 %
18.02.2023 05:02 10,4 C 9,4 C 6,7 C 96 % 1020,7 hPa 0,0 l/m 0 min 0 min 0 W/m 25,7 km/h (4 Bft) 97,87 %
18.02.2023 05:04 10,4 C 9,4 C 6,7 C 96 % 1020,7 hPa 0,0 l/m 0 min 0 min 0 W/m 16,1 km/h (3 Bft) 100,00 %
18.02.2023 05:06 10,4 C 9,4 C 6,7 C 96 % 1020,7 hPa 0,0 l/m 0 min 0 min 0 W/m 6,4 km/h (2 Bft) 97,87 %
18.02.2023 05:08 10,4 C 9,4 C 6,7 C 97 % 1020,7 hPa 0,0 l/m 0 min 2 min 0 W/m 6,4 km/h (2 Bft) 100,00 %
18.02.2023 05:10 10,4 C 9,4 C 6,7 C 97 % 1020,7 hPa 0,0 l/m 0 min 0 min 0 W/m 9,7 km/h (2 Bft) 100,00 %
18.02.2023 05:12 10,4 C 9,4 C 6,7 C 97 % 1020,6 hPa 0,0 l/m 0 min 0 min 0 W/m 9,7 km/h (2 Bft) 100,00 %
18.02.2023 05:14 10,4 C 9,4 C 6,7 C 96 % 1020,6 hPa 0,0 l/m 0 min 0 min 0 W/m 25,7 km/h (4 Bft) 100,00 %
18.02.2023 05:16 10,3 C 9,4 C 6,7 C 96 % 1020,7 hPa 0,0 l/m 0 min 0 min 0 W/m 25,7 km/h (4 Bft) 100,00 %
18.02.2023 05:18 10,3 C 9,4 C 6,7 C 96 % 1020,6 hPa 0,0 l/m 0 min 0 min 0 W/m 19,3 km/h (3 Bft) 97,87 %
18.02.2023 05:20 10,3 C 9,4 C 6,7 C 97 % 1020,6 hPa 0,0 l/m 0 min 0 min 0 W/m 16,1 km/h (3 Bft) 100,00 %
18.02.2023 05:22 10,3 C 9,4 C 6,7 C 97 % 1020,6 hPa 0,0 l/m 0 min 0 min 0 W/m 12,9 km/h (3 Bft) 100,00 %
18.02.2023 05:24 10,3 C 9,4 C 6,7 C 97 % 1020,7 hPa 0,0 l/m 0 min 0 min 0 W/m 16,1 km/h (3 Bft) 100,00 %
18.02.2023 05:26 10,3 C 9,4 C 6,7 C 97 % 1020,5 hPa 0,0 l/m 0 min 0 min 0 W/m 12,9 km/h (3 Bft) 100,00 %
18.02.2023 05:28 10,3 C 9,4 C 6,7 C 97 % 1020,6 hPa 0,0 l/m 0 min 0 min 0 W/m 16,1 km/h (3 Bft) 97,87 %
18.02.2023 05:30 10,3 C 9,4 C 6,7 C 97 % 1020,6 hPa 0,0 l/m 0 min 0 min 0 W/m 19,3 km/h (3 Bft) 100,00 %
18.02.2023 05:32 10,3 C 9,4 C 6,7 C 97 % 1020,5 hPa 0,0 l/m 0 min 0 min 0 W/m 12,9 km/h (3 Bft) 100,00 %
18.02.2023 05:34 10,3 C 9,4 C 6,7 C 97 % 1020,5 hPa 0,0 l/m 0 min 0 min 0 W/m 19,3 km/h (3 Bft) 100,00 %
18.02.2023 05:36 10,3 C 9,4 C 6,7 C 97 % 1020,5 hPa 0,0 l/m 0 min 0 min 0 W/m 12,9 km/h (3 Bft) 100,00 %
18.02.2023 05:38 10,3 C 9,4 C 6,7 C 97 % 1020,6 hPa 0,0 l/m 0 min 2 min 0 W/m 25,7 km/h (4 Bft) 97,87 %
18.02.2023 05:40 10,3 C 9,4 C 6,7 C 97 % 1020,5 hPa 0,0 l/m 0 min 0 min 0 W/m 9,7 km/h (2 Bft) 97,92 %
18.02.2023 05:42 10,3 C 9,4 C 6,7 C 97 % 1020,4 hPa 0,0 l/m 0 min 0 min 0 W/m 19,3 km/h (3 Bft) 100,00 %
18.02.2023 05:44 10,2 C 9,4 C 6,7 C 97 % 1020,4 hPa 0,0 l/m 0 min 0 min 0 W/m 12,9 km/h (3 Bft) 97,83 %
18.02.2023 05:46 10,2 C 9,4 C 6,7 C 97 % 1020,3 hPa 0,0 l/m 0 min 0 min 0 W/m 16,1 km/h (3 Bft) 95,74 %
18.02.2023 05:48 10,2 C 9,4 C 6,7 C 97 % 1020,4 hPa 0,0 l/m 0 min 0 min 0 W/m 22,5 km/h (4 Bft) 97,62 %
18.02.2023 05:50 10,2 C 9,4 C 6,7 C 97 % 1020,4 hPa 0,0 l/m 0 min 0 min 0 W/m 16,1 km/h (3 Bft) 98,00 %
18.02.2023 05:52 10,2 C 9,4 C 6,1 C 97 % 1020,4 hPa 0,0 l/m 0 min 0 min 0 W/m 16,1 km/h (3 Bft) 97,87 %
18.02.2023 05:54 10,2 C 9,4 C 6,1 C 97 % 1020,3 hPa 0,0 l/m 0 min 0 min 0 W/m 32,2 km/h (5 Bft) 97,92 %
18.02.2023 05:56 10,2 C 9,4 C 6,1 C 97 % 1020,4 hPa 0,0 l/m 0 min 0 min 0 W/m 22,5 km/h (4 Bft) 97,87 %
18.02.2023 05:58 10,2 C 9,4 C 6,1 C 97 % 1020,3 hPa 0,0 l/m 0 min 0 min 0 W/m 16,1 km/h (3 Bft) 95,74 %
18.02.2023 06:00 10,2 C 9,4 C 6,1 C 97 % 1020,4 hPa 0,0 l/m 0 min 0 min 0 W/m 25,7 km/h (4 Bft) 97,83 %
18.02.2023 06:02 10,2 C 9,4 C 6,1 C 97 % 1020,2 hPa 0,0 l/m 0 min 0 min 0 W/m 16,1 km/h (3 Bft) 97,87 %
18.02.2023 06:04 10,2 C 9,4 C 6,1 C 97 % 1020,4 hPa 0,2 l/m 0 min 0 min 0 W/m 19,3 km/h (3 Bft) 97,92 %
18.02.2023 06:07 10,2 C 9,4 C 6,1 C 97 % 1020,2 hPa 0,0 l/m 0 min 0 min 0 W/m 16,1 km/h (3 Bft) 97,14 %
18.02.2023 06:10 10,1 C 9,4 C 6,1 C 97 % 1020,3 hPa 0,0 l/m 0 min 0 min 0 W/m 25,7 km/h (4 Bft) 93,22 %
18.02.2023 06:12 10,1 C 9,4 C 6,1 C 97 % 1020,1 hPa 0,0 l/m 0 min 0 min 0 W/m 19,3 km/h (3 Bft) 98,11 %
18.02.2023 06:14 10,1 C 9,4 C 6,1 C 97 % 1020,2 hPa 0,0 l/m 0 min 0 min 0 W/m 12,9 km/h (3 Bft) 97,87 %
18.02.2023 06:16 10,1 C 9,4 C 6,1 C 97 % 1020,2 hPa 0,0 l/m 0 min 0 min 0 W/m 19,3 km/h (3 Bft) 95,74 %
18.02.2023 06:18 10,1 C 9,4 C 6,1 C 97 % 1020,1 hPa 0,0 l/m 0 min 0 min 0 W/m 25,7 km/h (4 Bft) 97,87 %
18.02.2023 06:20 10,1 C 9,4 C 6,1 C 97 % 1020,1 hPa 0,0 l/m 0 min 0 min 0 W/m 12,9 km/h (3 Bft) 93,62 %
18.02.2023 06:22 10,1 C 9,4 C 6,1 C 97 % 1020,0 hPa 0,0 l/m 0 min 0 min 0 W/m 16,1 km/h (3 Bft) 93,62 %
18.02.2023 06:24 10,1 C 9,4 C 6,1 C 97 % 1020,1 hPa 0,0 l/m 0 min 0 min 0 W/m 29,0 km/h (5 Bft) 68,75 %
18.02.2023 06:26 10,1 C 9,4 C 6,1 C 97 % 1020,0 hPa 0,0 l/m 0 min 0 min 0 W/m 19,3 km/h (3 Bft) 71,43 %
18.02.2023 06:28 10,1 C 9,4 C 6,1 C 97 % 1019,9 hPa 0,0 l/m 0 min 2 min 0 W/m 22,5 km/h (4 Bft) 93,62 %
18.02.2023 06:30 10,1 C 9,4 C 6,1 C 97 % 1019,9 hPa 0,0 l/m 0 min 0 min 0 W/m 25,7 km/h (4 Bft) 93,62 %
18.02.2023 06:32 10,1 C 9,4 C 6,1 C 97 % 1019,7 hPa 0,0 l/m 0 min 2 min 0 W/m 16,1 km/h (3 Bft) 91,49 %
18.02.2023 06:34 10,1 C 9,4 C 6,1 C 97 % 1019,7 hPa 0,0 l/m 0 min 0 min 0 W/m 32,2 km/h (5 Bft) 91,49 %
18.02.2023 06:36 10,1 C 9,4 C 6,1 C 98 % 1019,7 hPa 0,0 l/m 0 min 0 min 0 W/m 22,5 km/h (4 Bft) 95,74 %
18.02.2023 06:38 10,1 C 9,4 C 6,1 C 98 % 1019,7 hPa 0,0 l/m 0 min 0 min 0 W/m 12,9 km/h (3 Bft) 95,92 %
18.02.2023 06:40 10,1 C 9,4 C 6,1 C 98 % 1019,7 hPa 0,0 l/m 0 min 0 min 0 W/m 29,0 km/h (5 Bft) 95,74 %
18.02.2023 06:42 10,1 C 9,4 C 6,1 C 98 % 1019,7 hPa 0,0 l/m 0 min 0 min 0 W/m 19,3 km/h (3 Bft) 91,49 %
18.02.2023 06:44 10,1 C 9,4 C 6,1 C 98 % 1019,7 hPa 0,0 l/m 0 min 0 min 0 W/m 25,7 km/h (4 Bft) 93,62 %
18.02.2023 06:46 10,1 C 9,4 C 6,1 C 98 % 1019,6 hPa 0,0 l/m 0 min 0 min 0 W/m 16,1 km/h (3 Bft) 96,15 %
18.02.2023 06:48 10,1 C 9,4 C 6,1 C 98 % 1019,6 hPa 0,0 l/m 0 min 0 min 0 W/m 25,7 km/h (4 Bft) 95,74 %
18.02.2023 06:50 10,1 C 9,4 C 6,1 C 98 % 1019,6 hPa 0,0 l/m 0 min 0 min 0 W/m 22,5 km/h (4 Bft) 93,48 %
18.02.2023 06:52 10,0 C 9,4 C 6,1 C 98 % 1019,5 hPa 0,0 l/m 0 min 0 min 0 W/m 22,5 km/h (4 Bft) 95,74 %
18.02.2023 06:54 10,0 C 9,4 C 6,1 C 98 % 1019,4 hPa 0,0 l/m 0 min 0 min 0 W/m 29,0 km/h (5 Bft) 95,74 %
18.02.2023 06:56 10,0 C 9,4 C 6,1 C 98 % 1019,4 hPa 0,0 l/m 0 min 0 min 0 W/m 22,5 km/h (4 Bft) 95,74 %
18.02.2023 06:58 10,0 C 9,4 C 6,1 C 98 % 1019,5 hPa 0,0 l/m 0 min 0 min 0 W/m 35,4 km/h (5 Bft) 97,87 %
18.02.2023 07:00 10,0 C 9,4 C 6,1 C 98 % 1019,4 hPa 0,0 l/m 0 min 0 min 0 W/m 22,5 km/h (4 Bft) 95,74 %
18.02.2023 07:02 10,0 C 9,4 C 6,1 C 98 % 1019,4 hPa 0,0 l/m 0 min 0 min 0 W/m 19,3 km/h (3 Bft) 97,83 %
18.02.2023 07:04 10,0 C 9,4 C 6,1 C 98 % 1019,5 hPa 0,0 l/m 0 min 0 min 0 W/m 16,1 km/h (3 Bft) 97,87 %
18.02.2023 07:06 10,0 C 9,4 C 6,1 C 98 % 1019,4 hPa 0,0 l/m 0 min 0 min 0 W/m 19,3 km/h (3 Bft) 97,87 %
18.02.2023 07:08 10,0 C 9,4 C 6,1 C 98 % 1019,4 hPa 0,0 l/m 0 min 0 min 0 W/m 25,7 km/h (4 Bft) 97,87 %
18.02.2023 07:10 10,0 C 9,4 C 6,1 C 98 % 1019,4 hPa 0,2 l/m 0 min 0 min 0 W/m 29,0 km/h (5 Bft) 97,87 %
18.02.2023 07:12 10,0 C 9,4 C 6,1 C 98 % 1019,4 hPa 0,0 l/m 0 min 0 min 0 W/m 32,2 km/h (5 Bft) 97,87 %
18.02.2023 07:14 10,0 C 9,4 C 6,1 C 98 % 1019,4 hPa 0,0 l/m 0 min 0 min 0 W/m 19,3 km/h (3 Bft) 93,62 %
18.02.2023 07:16 10,0 C 9,4 C 6,1 C 98 % 1019,5 hPa 0,0 l/m 0 min 0 min 0 W/m 22,5 km/h (4 Bft) 97,83 %
18.02.2023 07:18 10,0 C 9,4 C 6,1 C 98 % 1019,6 hPa 0,0 l/m 0 min 0 min 0 W/m 16,1 km/h (3 Bft) 93,62 %
18.02.2023 07:20 10,0 C 9,4 C 6,1 C 98 % 1019,6 hPa 0,0 l/m 0 min 0 min 0 W/m 32,2 km/h (5 Bft) 100,00 %
18.02.2023 07:22 10,0 C 9,4 C 6,1 C 98 % 1019,5 hPa 0,0 l/m 0 min 0 min 0 W/m 45,1 km/h (6 Bft) 100,00 %
18.02.2023 07:24 10,0 C 9,4 C 6,1 C 98 % 1019,4 hPa 0,0 l/m 0 min 0 min 0 W/m 22,5 km/h (4 Bft) 100,00 %
18.02.2023 07:26 10,0 C 9,4 C 6,1 C 98 % 1019,4 hPa 0,0 l/m 0 min 0 min 0 W/m 22,5 km/h (4 Bft) 95,74 %
18.02.2023 07:28 10,1 C 9,4 C 6,1 C 98 % 1019,4 hPa 0,0 l/m 0 min 0 min 0 W/m 38,6 km/h (5 Bft) 97,83 %
18.02.2023 07:30 10,1 C 9,4 C 6,1 C 98 % 1019,4 hPa 0,0 l/m 0 min 0 min 0 W/m 25,7 km/h (4 Bft) 100,00 %
18.02.2023 07:32 10,1 C 9,4 C 6,7 C 97 % 1019,4 hPa 0,0 l/m 0 min 0 min 0 W/m 19,3 km/h (3 Bft) 100,00 %
18.02.2023 07:34 10,1 C 9,4 C 6,7 C 97 % 1019,4 hPa 0,0 l/m 0 min 0 min 0 W/m 22,5 km/h (4 Bft) 100,00 %
18.02.2023 07:36 10,1 C 9,4 C 6,7 C 97 % 1019,3 hPa 0,0 l/m 0 min 0 min 0 W/m 16,1 km/h (3 Bft) 100,00 %
18.02.2023 07:38 10,1 C 9,4 C 6,7 C 97 % 1019,3 hPa 0,0 l/m 0 min 0 min 0 W/m 19,3 km/h (3 Bft) 100,00 %
18.02.2023 07:40 10,1 C 9,4 C 6,7 C 97 % 1019,3 hPa 0,0 l/m 0 min 0 min 0 W/m 35,4 km/h (5 Bft) 97,87 %
18.02.2023 07:42 10,1 C 9,4 C 6,7 C 97 % 1019,4 hPa 0,0 l/m 0 min 0 min 0 W/m 19,3 km/h (3 Bft) 93,48 %
18.02.2023 07:44 10,1 C 9,4 C 6,7 C 97 % 1019,3 hPa 0,0 l/m 0 min 0 min 0 W/m 25,7 km/h (4 Bft) 100,00 %
18.02.2023 07:46 10,1 C 9,4 C 6,7 C 97 % 1019,4 hPa 0,0 l/m 0 min 0 min 0 W/m 25,7 km/h (4 Bft) 100,00 %
18.02.2023 07:48 10,2 C 9,4 C 6,7 C 97 % 1019,3 hPa 0,0 l/m 0 min 0 min 0 W/m 38,6 km/h (5 Bft) 97,87 %
18.02.2023 07:50 10,2 C 9,4 C 6,7 C 97 % 1019,4 hPa 0,0 l/m 0 min 0 min 0 W/m 22,5 km/h (4 Bft) 100,00 %
18.02.2023 07:52 10,2 C 9,4 C 6,7 C 97 % 1019,4 hPa 0,0 l/m 0 min 0 min 0 W/m 29,0 km/h (5 Bft) 100,00 %
18.02.2023 07:54 10,2 C 10,0 C 6,7 C 96 % 1019,4 hPa 0,0 l/m 0 min 0 min 0 W/m 25,7 km/h (4 Bft) 100,00 %
18.02.2023 07:56 10,2 C 10,0 C 6,7 C 96 % 1019,4 hPa 0,0 l/m 0 min 0 min 0 W/m 29,0 km/h (5 Bft) 97,87 %
18.02.2023 07:58 10,2 C 10,0 C 6,7 C 96 % 1019,3 hPa 0,0 l/m 0 min 0 min 0 W/m 19,3 km/h (3 Bft) 97,87 %
18.02.2023 08:00 10,2 C 10,0 C 6,7 C 96 % 1019,4 hPa 0,0 l/m 0 min 0 min 0 W/m 22,5 km/h (4 Bft) 89,36 %
18.02.2023 08:02 10,3 C 10,0 C 6,7 C 96 % 1019,5 hPa 0,0 l/m 0 min 0 min 3 W/m 19,3 km/h (3 Bft) 93,62 %
18.02.2023 08:04 10,3 C 10,0 C 6,7 C 96 % 1019,6 hPa 0,0 l/m 0 min 0 min 5 W/m 29,0 km/h (5 Bft) 80,43 %
18.02.2023 08:06 10,3 C 10,0 C 6,7 C 95 % 1019,6 hPa 0,0 l/m 0 min 0 min 5 W/m 16,1 km/h (3 Bft) 82,61 %
18.02.2023 08:08 10,3 C 10,0 C 6,7 C 95 % 1019,6 hPa 0,0 l/m 0 min 0 min 8 W/m 35,4 km/h (5 Bft) 89,36 %
18.02.2023 08:10 10,3 C 10,0 C 6,7 C 95 % 1019,7 hPa 0,0 l/m 0 min 0 min 9 W/m 25,7 km/h (4 Bft) 97,87 %
18.02.2023 08:12 10,3 C 10,0 C 6,7 C 95 % 1019,8 hPa 0,0 l/m 0 min 0 min 11 W/m 32,2 km/h (5 Bft) 100,00 %
18.02.2023 08:14 10,3 C 10,0 C 6,7 C 95 % 1019,6 hPa 0,0 l/m 0 min 0 min 12 W/m 25,7 km/h (4 Bft) 97,87 %
18.02.2023 08:16 10,3 C 10,0 C 6,7 C 94 % 1019,5 hPa 0,0 l/m 0 min 0 min 13 W/m 25,7 km/h (4 Bft) 95,74 %
18.02.2023 08:18 10,4 C 10,0 C 6,7 C 94 % 1019,6 hPa 0,0 l/m 0 min 0 min 16 W/m 22,5 km/h (4 Bft) 97,87 %
18.02.2023 08:20 10,4 C 10,0 C 6,7 C 94 % 1019,5 hPa 0,0 l/m 0 min 0 min 24 W/m 19,3 km/h (3 Bft) 97,83 %
18.02.2023 08:22 10,4 C 10,0 C 6,7 C 94 % 1019,6 hPa 0,0 l/m 0 min 0 min 27 W/m 22,5 km/h (4 Bft) 95,74 %
18.02.2023 08:24 10,4 C 10,0 C 6,7 C 94 % 1019,5 hPa 0,0 l/m 0 min 0 min 29 W/m 25,7 km/h (4 Bft) 91,49 %
18.02.2023 08:26 10,4 C 10,0 C 6,7 C 94 % 1019,5 hPa 0,0 l/m 0 min 0 min 29 W/m 29,0 km/h (5 Bft) 93,62 %
18.02.2023 08:28 10,4 C 10,0 C 6,7 C 94 % 1019,5 hPa 0,0 l/m 0 min 0 min 27 W/m 25,7 km/h (4 Bft) 95,74 %
18.02.2023 08:30 10,4 C 10,0 C 6,7 C 94 % 1019,5 hPa 0,0 l/m 0 min 0 min 25 W/m 25,7 km/h (4 Bft) 95,74 %
18.02.2023 08:32 10,3 C 10,0 C 6,7 C 94 % 1019,6 hPa 0,0 l/m 0 min 0 min 22 W/m 22,5 km/h (4 Bft) 93,48 %
18.02.2023 08:34 10,3 C 9,4 C 6,7 C 94 % 1019,5 hPa 0,0 l/m 0 min 0 min 20 W/m 25,7 km/h (4 Bft) 93,62 %
18.02.2023 08:36 10,3 C 9,4 C 6,7 C 94 % 1019,6 hPa 0,0 l/m 0 min 0 min 24 W/m 29,0 km/h (5 Bft) 95,74 %
18.02.2023 08:38 10,3 C 9,4 C 6,7 C 94 % 1019,6 hPa 0,0 l/m 0 min 0 min 25 W/m 29,0 km/h (5 Bft) 93,62 %
18.02.2023 08:40 10,3 C 9,4 C 6,7 C 94 % 1019,6 hPa 0,0 l/m 0 min 0 min 20 W/m 25,7 km/h (4 Bft) 95,74 %
18.02.2023 08:42 10,2 C 9,4 C 6,7 C 94 % 1019,6 hPa 0,0 l/m 0 min 0 min 20 W/m 19,3 km/h (3 Bft) 95,74 %
18.02.2023 08:44 10,2 C 9,4 C 6,1 C 94 % 1019,7 hPa 0,0 l/m 0 min 0 min 17 W/m 29,0 km/h (5 Bft) 95,74 %
18.02.2023 08:46 10,2 C 9,4 C 6,1 C 94 % 1019,8 hPa 0,0 l/m 0 min 2 min 13 W/m 25,7 km/h (4 Bft) 95,65 %
18.02.2023 08:48 10,1 C 8,9 C 6,1 C 94 % 1019,9 hPa 0,0 l/m 0 min 2 min 13 W/m 16,1 km/h (3 Bft) 97,87 %
18.02.2023 08:50 10,1 C 8,9 C 6,1 C 94 % 1019,8 hPa 0,0 l/m 0 min 0 min 15 W/m 35,4 km/h (5 Bft) 95,74 %
18.02.2023 08:52 10,1 C 8,9 C 6,1 C 95 % 1019,8 hPa 0,0 l/m 0 min 0 min 17 W/m 16,1 km/h (3 Bft) 97,87 %
18.02.2023 08:54 10,0 C 8,9 C 6,1 C 94 % 1019,8 hPa 0,0 l/m 0 min 0 min 20 W/m 22,5 km/h (4 Bft) 95,74 %
18.02.2023 08:56 9,9 C 8,9 C 6,1 C 95 % 1019,8 hPa 0,0 l/m 0 min 2 min 20 W/m 35,4 km/h (5 Bft) 97,87 %
18.02.2023 08:58 9,9 C 8,9 C 6,1 C 95 % 1020,0 hPa 0,0 l/m 0 min 2 min 18 W/m 22,5 km/h (4 Bft) 100,00 %
18.02.2023 09:00 9,9 C 8,9 C 6,1 C 95 % 1020,0 hPa 0,0 l/m 0 min 2 min 24 W/m 19,3 km/h (3 Bft) 97,87 %
18.02.2023 09:02 9,8 C 8,9 C 6,1 C 95 % 1019,9 hPa 0,0 l/m 0 min 0 min 24 W/m 29,0 km/h (5 Bft) 97,87 %
18.02.2023 09:04 9,8 C 8,9 C 6,1 C 95 % 1019,8 hPa 0,0 l/m 0 min 0 min 25 W/m 29,0 km/h (5 Bft) 100,00 %
18.02.2023 09:06 9,8 C 8,9 C 6,1 C 95 % 1019,9 hPa 0,0 l/m 0 min 0 min 36 W/m 19,3 km/h (3 Bft) 100,00 %
18.02.2023 09:08 9,8 C 8,9 C 6,1 C 95 % 1019,9 hPa 0,0 l/m 0 min 0 min 33 W/m 25,7 km/h (4 Bft) 100,00 %
18.02.2023 09:10 9,8 C 8,9 C 6,1 C 95 % 1020,0 hPa 0,0 l/m 0 min 0 min 29 W/m 22,5 km/h (4 Bft) 100,00 %
18.02.2023 09:12 9,7 C 8,9 C 6,1 C 95 % 1020,0 hPa 0,0 l/m 0 min 0 min 31 W/m 29,0 km/h (5 Bft) 100,00 %
18.02.2023 09:14 9,7 C 8,9 C 6,1 C 95 % 1020,0 hPa 0,0 l/m 0 min 0 min 32 W/m 32,2 km/h (5 Bft) 97,87 %
18.02.2023 09:16 9,7 C 8,9 C 6,1 C 95 % 1020,0 hPa 0,0 l/m 0 min 0 min 32 W/m 22,5 km/h (4 Bft) 100,00 %
18.02.2023 09:18 9,7 C 9,4 C 5,6 C 95 % 1020,0 hPa 0,0 l/m 0 min 0 min 30 W/m 32,2 km/h (5 Bft) 100,00 %
18.02.2023 09:20 9,7 C 9,4 C 5,6 C 95 % 1020,0 hPa 0,0 l/m 0 min 0 min 32 W/m 32,2 km/h (5 Bft) 95,74 %
18.02.2023 09:22 9,7 C 9,4 C 5,6 C 95 % 1020,1 hPa 0,0 l/m 0 min 0 min 36 W/m 25,7 km/h (4 Bft) 100,00 %
18.02.2023 09:24 9,7 C 9,4 C 5,6 C 95 % 1020,0 hPa 0,0 l/m 0 min 0 min 46 W/m 22,5 km/h (4 Bft) 100,00 %
18.02.2023 09:26 9,7 C 9,4 C 5,6 C 94 % 1019,8 hPa 0,0 l/m 0 min 0 min 60 W/m 38,6 km/h (5 Bft) 100,00 %
18.02.2023 09:28 9,7 C 9,4 C 6,1 C 94 % 1019,8 hPa 0,0 l/m 0 min 0 min 91 W/m 19,3 km/h (3 Bft) 100,00 %
18.02.2023 09:30 9,7 C 10,0 C 6,1 C 93 % 1019,9 hPa 0,0 l/m 0 min 0 min 97 W/m 19,3 km/h (3 Bft) 100,00 %
18.02.2023 09:32 9,8 C 10,0 C 6,1 C 93 % 1019,9 hPa 0,0 l/m 0 min 0 min 97 W/m 19,3 km/h (3 Bft) 100,00 %
18.02.2023 09:34 9,8 C 10,0 C 6,1 C 93 % 1019,9 hPa 0,0 l/m 0 min 0 min 84 W/m 22,5 km/h (4 Bft) 95,74 %
18.02.2023 09:36 9,9 C 10,0 C 6,1 C 93 % 1019,9 hPa 0,0 l/m 0 min 0 min 81 W/m 29,0 km/h (5 Bft) 95,65 %
18.02.2023 09:38 9,9 C 10,0 C 6,1 C 92 % 1019,9 hPa 0,0 l/m 0 min 0 min 78 W/m 25,7 km/h (4 Bft) 100,00 %
18.02.2023 09:40 9,9 C 10,0 C 6,1 C 92 % 1019,8 hPa 0,0 l/m 0 min 0 min 82 W/m 25,7 km/h (4 Bft) 96,55 %
18.02.2023 09:42 10,0 C 9,4 C 6,1 C 92 % 1019,8 hPa 0,0 l/m 0 min 0 min 61 W/m 25,7 km/h (4 Bft) 95,74 %
18.02.2023 09:44 9,9 C 9,4 C 6,1 C 92 % 1020,0 hPa 0,0 l/m 0 min 0 min 48 W/m 16,1 km/h (3 Bft) 97,14 %
18.02.2023 09:46 9,9 C 9,4 C 6,1 C 92 % 1019,9 hPa 0,0 l/m 0 min 0 min 42 W/m 22,5 km/h (4 Bft) 97,87 %
18.02.2023 09:48 9,9 C 9,4 C 6,1 C 92 % 1019,9 hPa 0,0 l/m 0 min 0 min 45 W/m 29,0 km/h (5 Bft) 95,74 %
18.02.2023 09:50 9,9 C 9,4 C 6,1 C 92 % 1020,0 hPa 0,0 l/m 0 min 0 min 48 W/m 22,5 km/h (4 Bft) 97,87 %
18.02.2023 09:52 9,9 C 9,4 C 6,1 C 92 % 1019,9 hPa 0,0 l/m 0 min 0 min 62 W/m 22,5 km/h (4 Bft) 97,87 %
18.02.2023 09:54 9,9 C 9,4 C 6,1 C 92 % 1020,1 hPa 0,0 l/m 0 min 0 min 55 W/m 16,1 km/h (3 Bft) 97,87 %
18.02.2023 09:56 9,9 C 9,4 C 6,1 C 92 % 1020,0 hPa 0,0 l/m 0 min 0 min 59 W/m 16,1 km/h (3 Bft) 93,62 %
18.02.2023 09:58 9,9 C 9,4 C 6,1 C 92 % 1019,8 hPa 0,0 l/m 0 min 0 min 59 W/m 22,5 km/h (4 Bft) 48,84 %
18.02.2023 10:00 9,9 C 9,4 C 6,1 C 92 % 1019,8 hPa 0,0 l/m 0 min 0 min 54 W/m 25,7 km/h (4 Bft) 95,74 %
18.02.2023 10:02 9,9 C 9,4 C 6,1 C 92 % 1019,8 hPa 0,0 l/m 0 min 0 min 57 W/m 22,5 km/h (4 Bft) 97,87 %
18.02.2023 10:04 9,8 C 9,4 C 6,7 C 91 % 1019,8 hPa 0,0 l/m 0 min 0 min 52 W/m 22,5 km/h (4 Bft) 95,74 %
18.02.2023 10:06 9,9 C 9,4 C 6,7 C 91 % 1019,8 hPa 0,0 l/m 0 min 0 min 52 W/m 25,7 km/h (4 Bft) 96,55 %
18.02.2023 10:08 9,9 C 9,4 C 6,7 C 91 % 1019,8 hPa 0,0 l/m 0 min 0 min 66 W/m 22,5 km/h (4 Bft) 95,74 %
18.02.2023 10:10 9,9 C 9,4 C 6,7 C 91 % 1019,8 hPa 0,0 l/m 0 min 0 min 77 W/m 25,7 km/h (4 Bft) 91,43 %
18.02.2023 10:12 9,9 C 9,4 C 6,7 C 91 % 1019,8 hPa 0,0 l/m 0 min 0 min 90 W/m 22,5 km/h (4 Bft) 95,74 %
18.02.2023 10:14 9,9 C 9,4 C 6,7 C 91 % 1019,8 hPa 0,0 l/m 0 min 0 min 48 W/m 9,7 km/h (2 Bft) 93,62 %
18.02.2023 10:16 10,0 C 9,4 C 6,7 C 91 % 1019,8 hPa 0,0 l/m 0 min 0 min 50 W/m 22,5 km/h (4 Bft) 95,74 %
18.02.2023 10:18 10,0 C 9,4 C 6,7 C 91 % 1019,8 hPa 0,0 l/m 0 min 0 min 49 W/m 38,6 km/h (5 Bft) 95,74 %
18.02.2023 10:20 10,0 C 9,4 C 6,7 C 90 % 1019,8 hPa 0,0 l/m 0 min 0 min 39 W/m 29,0 km/h (5 Bft) 95,65 %
18.02.2023 10:22 10,0 C 9,4 C 6,7 C 90 % 1019,9 hPa 0,0 l/m 0 min 0 min 37 W/m 22,5 km/h (4 Bft) 95,74 %
18.02.2023 10:24 10,0 C 9,4 C 6,7 C 90 % 1019,8 hPa 0,0 l/m 0 min 0 min 52 W/m 19,3 km/h (3 Bft) 95,74 %
18.02.2023 10:26 10,0 C 9,4 C 6,7 C 90 % 1019,7 hPa 0,0 l/m 0 min 0 min 41 W/m 22,5 km/h (4 Bft) 97,87 %
18.02.2023 10:28 10,1 C 9,4 C 6,7 C 90 % 1019,7 hPa 0,0 l/m 0 min 0 min 38 W/m 29,0 km/h (5 Bft) 93,62 %
18.02.2023 10:30 10,1 C 9,4 C 6,7 C 90 % 1019,8 hPa 0,0 l/m 0 min 0 min 39 W/m 19,3 km/h (3 Bft) 95,74 %
18.02.2023 10:32 10,1 C 9,4 C 6,7 C 90 % 1019,8 hPa 0,0 l/m 0 min 0 min 52 W/m 22,5 km/h (4 Bft) 97,83 %
18.02.2023 10:34 10,1 C 9,4 C 6,7 C 90 % 1019,7 hPa 0,0 l/m 0 min 0 min 58 W/m 22,5 km/h (4 Bft) 97,87 %
18.02.2023 10:36 10,1 C 9,4 C 6,7 C 89 % 1019,7 hPa 0,0 l/m 0 min 0 min 65 W/m 32,2 km/h (5 Bft) 95,74 %
18.02.2023 10:38 10,1 C 9,4 C 6,7 C 89 % 1019,6 hPa 0,0 l/m 0 min 0 min 63 W/m 16,1 km/h (3 Bft) 100,00 %
18.02.2023 10:40 10,1 C 10,0 C 6,7 C 89 % 1019,7 hPa 0,0 l/m 0 min 0 min 59 W/m 19,3 km/h (3 Bft) 100,00 %
18.02.2023 10:42 10,1 C 10,0 C 6,7 C 89 % 1019,8 hPa 0,0 l/m 0 min 0 min 47 W/m 22,5 km/h (4 Bft) 97,87 %
18.02.2023 10:44 10,1 C 10,0 C 6,7 C 89 % 1019,7 hPa 0,0 l/m 0 min 0 min 52 W/m 29,0 km/h (5 Bft) 97,87 %
18.02.2023 10:46 10,1 C 10,0 C 6,7 C 89 % 1019,6 hPa 0,0 l/m 0 min 0 min 59 W/m 19,3 km/h (3 Bft) 97,83 %
18.02.2023 10:48 10,2 C 10,0 C 6,7 C 89 % 1019,8 hPa 0,0 l/m 0 min 0 min 70 W/m 25,7 km/h (4 Bft) 100,00 %
18.02.2023 10:50 10,2 C 10,0 C 6,7 C 89 % 1019,7 hPa 0,0 l/m 0 min 0 min 74 W/m 22,5 km/h (4 Bft) 97,87 %
18.02.2023 10:52 10,2 C 10,0 C 6,7 C 89 % 1019,7 hPa 0,0 l/m 0 min 0 min 71 W/m 35,4 km/h (5 Bft) 97,87 %
18.02.2023 10:54 10,2 C 10,0 C 6,7 C 89 % 1019,6 hPa 0,0 l/m 0 min 0 min 74 W/m 22,5 km/h (4 Bft) 97,87 %
18.02.2023 10:56 10,2 C 10,0 C 6,7 C 89 % 1019,6 hPa 0,0 l/m 0 min 0 min 77 W/m 16,1 km/h (3 Bft) 95,74 %
18.02.2023 10:58 10,3 C 10,0 C 6,7 C 89 % 1019,6 hPa 0,0 l/m 0 min 0 min 82 W/m 16,1 km/h (3 Bft) 97,87 %
18.02.2023 11:00 10,3 C 10,0 C 6,7 C 89 % 1019,7 hPa 0,0 l/m 0 min 0 min 80 W/m 22,5 km/h (4 Bft) 95,65 %
18.02.2023 11:02 10,3 C 10,0 C 6,7 C 89 % 1019,6 hPa 0,0 l/m 0 min 0 min 80 W/m 35,4 km/h (5 Bft) 95,74 %
18.02.2023 11:04 10,3 C 10,0 C 6,7 C 88 % 1019,5 hPa 0,0 l/m 0 min 0 min 71 W/m 29,0 km/h (5 Bft) 97,87 %
18.02.2023 11:06 10,3 C 10,0 C 6,7 C 88 % 1019,5 hPa 0,0 l/m 0 min 0 min 78 W/m 19,3 km/h (3 Bft) 98,33 %
18.02.2023 11:08 10,3 C 10,0 C 6,7 C 88 % 1019,5 hPa 0,0 l/m 0 min 0 min 75 W/m 25,7 km/h (4 Bft) 97,14 %
18.02.2023 11:10 10,3 C 10,0 C 6,7 C 88 % 1019,5 hPa 0,0 l/m 0 min 0 min 72 W/m 25,7 km/h (4 Bft) 95,74 %
18.02.2023 11:12 10,3 C 10,0 C 6,7 C 88 % 1019,5 hPa 0,0 l/m 0 min 0 min 82 W/m 19,3 km/h (3 Bft) 95,65 %
18.02.2023 11:14 10,3 C 10,0 C 6,7 C 88 % 1019,5 hPa 0,0 l/m 0 min 0 min 77 W/m 25,7 km/h (4 Bft) 97,87 %
18.02.2023 11:16 10,4 C 10,0 C 7,2 C 88 % 1019,5 hPa 0,0 l/m 0 min 0 min 68 W/m 22,5 km/h (4 Bft) 91,49 %
18.02.2023 11:18 10,4 C 10,0 C 7,2 C 88 % 1019,5 hPa 0,0 l/m 0 min 0 min 67 W/m 19,3 km/h (3 Bft) 97,87 %
18.02.2023 11:20 10,4 C 10,0 C 7,2 C 88 % 1019,5 hPa 0,0 l/m 0 min 0 min 59 W/m 16,1 km/h (3 Bft) 97,87 %
18.02.2023 11:22 10,4 C 10,0 C 6,7 C 88 % 1019,5 hPa 0,0 l/m 0 min 2 min 58 W/m 48,3 km/h (6 Bft) 97,87 %
18.02.2023 11:24 10,4 C 10,0 C 6,7 C 88 % 1019,5 hPa 0,0 l/m 0 min 2 min 60 W/m 29,0 km/h (5 Bft) 97,87 %
18.02.2023 11:26 10,4 C 9,4 C 6,7 C 88 % 1019,5 hPa 0,0 l/m 0 min 2 min 58 W/m 25,7 km/h (4 Bft) 97,83 %
18.02.2023 11:28 10,3 C 9,4 C 6,1 C 89 % 1019,7 hPa 0,0 l/m 0 min 2 min 67 W/m 29,0 km/h (5 Bft) 97,87 %
18.02.2023 11:30 10,2 C 9,4 C 6,1 C 89 % 1019,6 hPa 0,0 l/m 0 min 2 min 82 W/m 29,0 km/h (5 Bft) 97,87 %
18.02.2023 11:32 10,2 C 9,4 C 6,1 C 89 % 1019,7 hPa 0,0 l/m 0 min 2 min 68 W/m 22,5 km/h (4 Bft) 97,87 %
18.02.2023 11:34 10,1 C 9,4 C 5,6 C 90 % 1019,7 hPa 0,0 l/m 0 min 2 min 58 W/m 19,3 km/h (3 Bft) 97,87 %
18.02.2023 11:36 10,1 C 9,4 C 5,6 C 90 % 1019,9 hPa 0,0 l/m 0 min 0 min 51 W/m 19,3 km/h (3 Bft) 100,00 %
18.02.2023 11:38 10,1 C 9,4 C 5,6 C 91 % 1019,9 hPa 0,0 l/m 0 min 0 min 53 W/m 16,1 km/h (3 Bft) 100,00 %
18.02.2023 11:40 10,0 C 9,4 C 5,6 C 91 % 1019,9 hPa 0,0 l/m 0 min 0 min 58 W/m 25,7 km/h (4 Bft) 100,00 %
18.02.2023 11:42 10,0 C 9,4 C 5,6 C 91 % 1019,9 hPa 0,0 l/m 0 min 0 min 59 W/m 22,5 km/h (4 Bft) 100,00 %
18.02.2023 11:44 9,9 C 9,4 C 5,6 C 91 % 1019,8 hPa 0,0 l/m 0 min 0 min 58 W/m 19,3 km/h (3 Bft) 100,00 %
18.02.2023 11:46 9,9 C 9,4 C 5,6 C 92 % 1020,0 hPa 0,0 l/m 0 min 0 min 63 W/m 38,6 km/h (5 Bft) 97,87 %
18.02.2023 11:48 9,9 C 9,4 C 6,1 C 92 % 1020,0 hPa 0,0 l/m 0 min 0 min 75 W/m 12,9 km/h (3 Bft) 100,00 %
18.02.2023 11:50 9,9 C 9,4 C 6,1 C 92 % 1020,0 hPa 0,0 l/m 0 min 0 min 80 W/m 19,3 km/h (3 Bft) 100,00 %
18.02.2023 11:52 9,9 C 9,4 C 6,1 C 92 % 1019,9 hPa 0,0 l/m 0 min 0 min 70 W/m 38,6 km/h (5 Bft) 100,00 %
18.02.2023 11:54 9,9 C 9,4 C 6,1 C 92 % 1019,9 hPa 0,0 l/m 0 min 0 min 77 W/m 12,9 km/h (3 Bft) 97,87 %
18.02.2023 11:56 9,8 C 9,4 C 6,1 C 92 % 1020,0 hPa 0,0 l/m 0 min 2 min 80 W/m 19,3 km/h (3 Bft) 97,87 %
18.02.2023 11:58 9,8 C 9,4 C 6,1 C 93 % 1019,9 hPa 0,0 l/m 0 min 2 min 90 W/m 35,4 km/h (5 Bft) 100,00 %
18.02.2023 12:00 9,8 C 9,4 C 6,1 C 93 % 1019,9 hPa 0,0 l/m 0 min 2 min 103 W/m 16,1 km/h (3 Bft) 100,00 %
18.02.2023 12:02 9,8 C 9,4 C 6,1 C 93 % 1020,0 hPa 0,0 l/m 0 min 2 min 94 W/m 19,3 km/h (3 Bft) 95,74 %
18.02.2023 12:04 9,8 C 8,9 C 5,6 C 93 % 1020,0 hPa 0,0 l/m 0 min 2 min 80 W/m 16,1 km/h (3 Bft) 95,65 %
18.02.2023 12:07 9,7 C 8,9 C 5,6 C 93 % 1019,9 hPa 0,0 l/m 0 min 3 min 78 W/m 35,4 km/h (5 Bft) 97,26 %
18.02.2023 12:08 9,7 C 8,9 C 5,6 C 93 % 1019,9 hPa 0,0 l/m 0 min 1 min 72 W/m 16,1 km/h (3 Bft) 91,30 %
18.02.2023 12:12 9,7 C 8,9 C 5,6 C 94 % 1019,9 hPa 0,0 l/m 0 min 0 min 95 W/m 25,7 km/h (4 Bft) 98,31 %
18.02.2023 12:14 9,6 C 8,9 C 5,6 C 94 % 1020,0 hPa 0,0 l/m 0 min 0 min 102 W/m 25,7 km/h (4 Bft) 97,87 %
18.02.2023 12:16 9,6 C 8,9 C 5,6 C 94 % 1020,0 hPa 0,0 l/m 0 min 2 min 97 W/m 25,7 km/h (4 Bft) 97,83 %
18.02.2023 12:18 9,6 C 8,9 C 5,6 C 94 % 1020,0 hPa 0,0 l/m 0 min 0 min 89 W/m 19,3 km/h (3 Bft) 97,87 %
18.02.2023 12:20 9,6 C 8,9 C 5,6 C 95 % 1020,0 hPa 0,0 l/m 0 min 0 min 86 W/m 48,3 km/h (6 Bft) 97,87 %
18.02.2023 12:22 9,6 C 8,9 C 5,6 C 95 % 1019,9 hPa 0,0 l/m 0 min 0 min 89 W/m 25,7 km/h (4 Bft) 97,87 %
18.02.2023 12:24 9,6 C 8,9 C 5,6 C 95 % 1019,9 hPa 0,0 l/m 0 min 0 min 83 W/m 19,3 km/h (3 Bft) 97,87 %
18.02.2023 12:26 9,6 C 8,9 C 5,6 C 95 % 1020,0 hPa 0,0 l/m 0 min 0 min 105 W/m 12,9 km/h (3 Bft) 97,87 %
18.02.2023 12:28 9,6 C 8,9 C 6,1 C 95 % 1019,9 hPa 0,0 l/m 0 min 0 min 104 W/m 19,3 km/h (3 Bft) 97,83 %
18.02.2023 12:30 9,6 C 8,9 C 5,6 C 95 % 1019,9 hPa 0,0 l/m 0 min 0 min 89 W/m 25,7 km/h (4 Bft) 97,87 %
18.02.2023 12:32 9,6 C 8,9 C 5,6 C 95 % 1019,9 hPa 0,0 l/m 0 min 0 min 97 W/m 22,5 km/h (4 Bft) 91,49 %
18.02.2023 12:34 9,6 C 8,9 C 5,6 C 95 % 1019,9 hPa 0,0 l/m 0 min 0 min 91 W/m 38,6 km/h (5 Bft) 95,74 %
18.02.2023 12:36 9,6 C 8,9 C 5,6 C 96 % 1019,9 hPa 0,0 l/m 0 min 0 min 92 W/m 25,7 km/h (4 Bft) 97,87 %
18.02.2023 12:38 9,6 C 8,9 C 6,1 C 96 % 1020,0 hPa 0,0 l/m 0 min 0 min 89 W/m 12,9 km/h (3 Bft) 97,87 %
18.02.2023 12:40 9,6 C 8,9 C 6,1 C 96 % 1020,0 hPa 0,0 l/m 0 min 0 min 73 W/m 12,9 km/h (3 Bft) 97,83 %
18.02.2023 12:42 9,6 C 8,9 C 6,1 C 96 % 1020,1 hPa 0,0 l/m 0 min 0 min 64 W/m 16,1 km/h (3 Bft) 95,74 %
18.02.2023 12:44 9,6 C 8,9 C 5,6 C 96 % 1020,0 hPa 0,0 l/m 0 min 0 min 69 W/m 22,5 km/h (4 Bft) 97,87 %
18.02.2023 12:46 9,6 C 8,9 C 5,6 C 96 % 1020,1 hPa 0,0 l/m 0 min 0 min 73 W/m 19,3 km/h (3 Bft) 97,87 %
18.02.2023 12:48 9,6 C 8,9 C 5,6 C 96 % 1020,1 hPa 0,0 l/m 0 min 0 min 75 W/m 32,2 km/h (5 Bft) 95,74 %
18.02.2023 12:50 9,6 C 8,9 C 5,6 C 96 % 1020,1 hPa 0,0 l/m 0 min 0 min 67 W/m 19,3 km/h (3 Bft) 97,87 %
18.02.2023 12:52 9,5 C 8,9 C 5,6 C 96 % 1020,1 hPa 0,0 l/m 0 min 0 min 66 W/m 29,0 km/h (5 Bft) 97,87 %
18.02.2023 12:54 9,5 C 8,9 C 5,6 C 96 % 1020,1 hPa 0,0 l/m 0 min 0 min 61 W/m 19,3 km/h (3 Bft) 97,83 %
18.02.2023 12:56 9,5 C 8,9 C 5,6 C 96 % 1020,1 hPa 0,0 l/m 0 min 0 min 68 W/m 25,7 km/h (4 Bft) 97,87 %
18.02.2023 12:58 9,4 C 8,9 C 5,6 C 96 % 1020,1 hPa 0,0 l/m 0 min 0 min 73 W/m 25,7 km/h (4 Bft) 97,87 %
18.02.2023 13:00 9,5 C 8,9 C 5,6 C 96 % 1020,1 hPa 0,2 l/m 0 min 0 min 88 W/m 22,5 km/h (4 Bft) 95,74 %
18.02.2023 13:02 9,5 C 8,9 C 6,1 C 96 % 1020,1 hPa 0,0 l/m 0 min 0 min 110 W/m 19,3 km/h (3 Bft) 95,74 %
18.02.2023 13:04 9,5 C 8,9 C 6,1 C 96 % 1020,0 hPa 0,0 l/m 0 min 0 min 105 W/m 35,4 km/h (5 Bft) 97,87 %
18.02.2023 13:06 9,5 C 8,9 C 6,1 C 97 % 1020,0 hPa 0,0 l/m 0 min 0 min 120 W/m 16,1 km/h (3 Bft) 95,65 %
18.02.2023 13:08 9,6 C 8,9 C 6,1 C 96 % 1020,1 hPa 0,0 l/m 0 min 0 min 129 W/m 12,9 km/h (3 Bft) 93,62 %
18.02.2023 13:10 9,6 C 8,9 C 6,1 C 97 % 1020,0 hPa 0,0 l/m 0 min 0 min 127 W/m 19,3 km/h (3 Bft) 97,87 %
18.02.2023 13:12 9,6 C 8,9 C 6,1 C 97 % 1019,9 hPa 0,0 l/m 0 min 0 min 119 W/m 19,3 km/h (3 Bft) 95,74 %
18.02.2023 13:14 9,6 C 8,9 C 6,1 C 97 % 1019,9 hPa 0,0 l/m 0 min 0 min 95 W/m 16,1 km/h (3 Bft) 97,87 %
18.02.2023 13:16 9,6 C 8,9 C 6,1 C 97 % 1020,0 hPa 0,0 l/m 0 min 0 min 88 W/m 16,1 km/h (3 Bft) 97,87 %
18.02.2023 13:18 9,6 C 8,9 C 6,1 C 97 % 1020,0 hPa 0,0 l/m 0 min 0 min 80 W/m 19,3 km/h (3 Bft) 95,74 %
18.02.2023 13:20 9,6 C 8,9 C 6,1 C 97 % 1020,0 hPa 0,0 l/m 0 min 0 min 88 W/m 16,1 km/h (3 Bft) 97,83 %
18.02.2023 13:22 9,6 C 8,9 C 6,1 C 97 % 1020,0 hPa 0,0 l/m 0 min 0 min 87 W/m 16,1 km/h (3 Bft) 100,00 %
18.02.2023 13:24 9,6 C 8,9 C 6,1 C 97 % 1019,9 hPa 0,0 l/m 0 min 0 min 93 W/m 16,1 km/h (3 Bft) 100,00 %
18.02.2023 13:26 9,6 C 8,9 C 6,1 C 97 % 1019,8 hPa 0,0 l/m 0 min 0 min 104 W/m 16,1 km/h (3 Bft) 97,87 %
18.02.2023 13:28 9,6 C 9,4 C 6,1 C 97 % 1019,9 hPa 0,0 l/m 0 min 0 min 145 W/m 19,3 km/h (3 Bft) 95,74 %
18.02.2023 13:30 9,7 C 9,4 C 6,1 C 97 % 1019,8 hPa 0,0 l/m 0 min 0 min 152 W/m 19,3 km/h (3 Bft) 100,00 %
18.02.2023 13:32 9,7 C 9,4 C 6,1 C 97 % 1019,8 hPa 0,0 l/m 0 min 0 min 141 W/m 16,1 km/h (3 Bft) 100,00 %
18.02.2023 13:34 9,7 C 9,4 C 6,1 C 97 % 1019,9 hPa 0,0 l/m 0 min 0 min 142 W/m 16,1 km/h (3 Bft) 97,87 %
18.02.2023 13:36 9,7 C 9,4 C 6,1 C 97 % 1019,9 hPa 0,0 l/m 0 min 0 min 89 W/m 16,1 km/h (3 Bft) 89,36 %
18.02.2023 13:38 9,7 C 9,4 C 6,1 C 97 % 1019,9 hPa 0,0 l/m 0 min 0 min 72 W/m 19,3 km/h (3 Bft) 55,26 %
18.02.2023 13:40 9,7 C 8,9 C 6,1 C 97 % 1019,9 hPa 0,0 l/m 0 min 0 min 62 W/m 22,5 km/h (4 Bft) 95,74 %
18.02.2023 13:42 9,7 C 8,9 C 6,1 C 97 % 1019,9 hPa 0,0 l/m 0 min 0 min 65 W/m 16,1 km/h (3 Bft) 95,74 %
18.02.2023 13:44 9,7 C 8,9 C 6,1 C 97 % 1019,9 hPa 0,0 l/m 0 min 0 min 70 W/m 12,9 km/h (3 Bft) 97,83 %
18.02.2023 13:46 9,7 C 8,9 C 6,1 C 97 % 1019,9 hPa 0,0 l/m 0 min 0 min 66 W/m 22,5 km/h (4 Bft) 97,87 %
18.02.2023 13:48 9,7 C 8,9 C 6,1 C 97 % 1020,0 hPa 0,0 l/m 0 min 0 min 70 W/m 16,1 km/h (3 Bft) 97,87 %
18.02.2023 13:50 9,7 C 8,9 C 6,1 C 97 % 1019,9 hPa 0,0 l/m 0 min 0 min 76 W/m 29,0 km/h (5 Bft) 97,87 %
18.02.2023 13:52 9,7 C 8,9 C 6,1 C 97 % 1019,9 hPa 0,0 l/m 0 min 0 min 71 W/m 12,9 km/h (3 Bft) 97,87 %
18.02.2023 13:54 9,7 C 8,9 C 6,1 C 97 % 1019,9 hPa 0,2 l/m 0 min 0 min 75 W/m 22,5 km/h (4 Bft) 97,87 %
18.02.2023 13:56 9,7 C 8,9 C 6,1 C 97 % 1019,9 hPa 0,0 l/m 0 min 0 min 97 W/m 25,7 km/h (4 Bft) 97,87 %
18.02.2023 13:58 9,7 C 9,4 C 6,1 C 97 % 1020,0 hPa 0,0 l/m 0 min 0 min 110 W/m 22,5 km/h (4 Bft) 93,48 %
18.02.2023 14:00 9,7 C 9,4 C 6,1 C 97 % 1019,9 hPa 0,0 l/m 0 min 0 min 105 W/m 16,1 km/h (3 Bft) 93,62 %
18.02.2023 14:02 9,7 C 9,4 C 6,1 C 97 % 1020,0 hPa 0,0 l/m 0 min 0 min 98 W/m 16,1 km/h (3 Bft) 95,74 %
18.02.2023 14:04 9,7 C 9,4 C 6,1 C 97 % 1019,9 hPa 0,0 l/m 0 min 0 min 92 W/m 25,7 km/h (4 Bft) 93,75 %
18.02.2023 14:06 9,7 C 9,4 C 6,1 C 97 % 1019,8 hPa 0,0 l/m 0 min 0 min 75 W/m 12,9 km/h (3 Bft) 95,74 %
18.02.2023 14:08 9,8 C 9,4 C 6,1 C 97 % 1019,8 hPa 0,0 l/m 0 min 0 min 69 W/m 16,1 km/h (3 Bft) 95,74 %
18.02.2023 14:10 9,8 C 9,4 C 6,7 C 97 % 1019,8 hPa 0,0 l/m 0 min 0 min 56 W/m 16,1 km/h (3 Bft) 95,65 %
18.02.2023 14:12 9,8 C 9,4 C 6,1 C 98 % 1019,8 hPa 0,0 l/m 0 min 0 min 50 W/m 16,1 km/h (3 Bft) 95,74 %
18.02.2023 14:14 9,8 C 8,9 C 6,1 C 98 % 1019,8 hPa 0,0 l/m 0 min 0 min 44 W/m 12,9 km/h (3 Bft) 95,74 %
18.02.2023 14:16 9,8 C 8,9 C 6,1 C 98 % 1019,9 hPa 0,0 l/m 0 min 0 min 38 W/m 19,3 km/h (3 Bft) 95,74 %
18.02.2023 14:18 9,7 C 8,9 C 6,1 C 98 % 1019,9 hPa 0,0 l/m 0 min 0 min 35 W/m 29,0 km/h (5 Bft) 95,74 %
18.02.2023 14:20 9,7 C 8,9 C 6,1 C 98 % 1020,0 hPa 0,0 l/m 0 min 0 min 37 W/m 12,9 km/h (3 Bft) 97,87 %
18.02.2023 14:22 9,7 C 8,9 C 6,1 C 98 % 1019,9 hPa 0,0 l/m 0 min 0 min 39 W/m 16,1 km/h (3 Bft) 97,87 %
18.02.2023 14:24 9,7 C 8,9 C 6,1 C 98 % 1019,9 hPa 0,0 l/m 0 min 0 min 35 W/m 29,0 km/h (5 Bft) 97,83 %
18.02.2023 14:26 9,7 C 9,4 C 6,1 C 98 % 1019,9 hPa 0,0 l/m 0 min 0 min 33 W/m 22,5 km/h (4 Bft) 95,74 %
18.02.2023 14:28 9,7 C 9,4 C 6,1 C 98 % 1019,9 hPa 0,0 l/m 0 min 0 min 31 W/m 12,9 km/h (3 Bft) 95,74 %
18.02.2023 14:30 9,8 C 9,4 C 6,1 C 98 % 1019,9 hPa 0,0 l/m 0 min 0 min 31 W/m 16,1 km/h (3 Bft) 100,00 %
18.02.2023 14:32 9,7 C 9,4 C 6,1 C 98 % 1019,9 hPa 0,0 l/m 0 min 0 min 32 W/m 22,5 km/h (4 Bft) 100,00 %
18.02.2023 14:34 9,8 C 9,4 C 6,1 C 98 % 1019,9 hPa 0,0 l/m 0 min 0 min 27 W/m 16,1 km/h (3 Bft) 100,00 %
18.02.2023 14:36 9,8 C 9,4 C 6,1 C 98 % 1019,9 hPa 0,0 l/m 0 min 0 min 26 W/m 12,9 km/h (3 Bft) 97,83 %
18.02.2023 14:38 9,8 C 9,4 C 6,1 C 98 % 1020,0 hPa 0,0 l/m 0 min 0 min 31 W/m 12,9 km/h (3 Bft) 100,00 %
18.02.2023 14:40 9,8 C 9,4 C 6,1 C 98 % 1020,0 hPa 0,0 l/m 0 min 0 min 28 W/m 29,0 km/h (5 Bft) 100,00 %
18.02.2023 14:42 9,8 C 9,4 C 6,1 C 98 % 1019,9 hPa 0,0 l/m 0 min 0 min 29 W/m 16,1 km/h (3 Bft) 100,00 %
18.02.2023 14:44 9,8 C 9,4 C 6,7 C 98 % 1019,9 hPa 0,0 l/m 0 min 0 min 41 W/m 16,1 km/h (3 Bft) 100,00 %
18.02.2023 14:46 9,8 C 9,4 C 6,7 C 98 % 1019,9 hPa 0,0 l/m 0 min 0 min 52 W/m 41,8 km/h (6 Bft) 97,87 %
18.02.2023 14:48 9,8 C 9,4 C 6,7 C 98 % 1019,9 hPa 0,0 l/m 0 min 0 min 49 W/m 16,1 km/h (3 Bft) 100,00 %
18.02.2023 14:50 9,8 C 9,4 C 6,7 C 98 % 1019,9 hPa 0,0 l/m 0 min 0 min 36 W/m 25,7 km/h (4 Bft) 100,00 %
18.02.2023 14:52 9,8 C 9,4 C 6,7 C 98 % 1019,9 hPa 0,0 l/m 0 min 0 min 38 W/m 16,1 km/h (3 Bft) 100,00 %
18.02.2023 14:54 9,9 C 9,4 C 6,7 C 98 % 1019,9 hPa 0,0 l/m 0 min 0 min 38 W/m 25,7 km/h (4 Bft) 97,87 %
18.02.2023 14:56 9,9 C 9,4 C 6,7 C 98 % 1019,8 hPa 0,0 l/m 0 min 0 min 36 W/m 16,1 km/h (3 Bft) 100,00 %
18.02.2023 14:58 9,9 C 9,4 C 6,7 C 98 % 1019,9 hPa 0,0 l/m 0 min 0 min 42 W/m 19,3 km/h (3 Bft) 100,00 %
18.02.2023 15:00 9,9 C 9,4 C 6,7 C 98 % 1019,9 hPa 0,0 l/m 0 min 0 min 61 W/m 19,3 km/h (3 Bft) 97,87 %
18.02.2023 15:02 9,9 C 9,4 C 6,7 C 98 % 1019,8 hPa 0,0 l/m 0 min 0 min 65 W/m 29,0 km/h (5 Bft) 100,00 %
18.02.2023 15:04 9,9 C 9,4 C 6,7 C 98 % 1019,8 hPa 0,0 l/m 0 min 0 min 62 W/m 19,3 km/h (3 Bft) 97,83 %
18.02.2023 15:06 10,0 C 9,4 C 6,7 C 98 % 1019,8 hPa 0,0 l/m 0 min 0 min 68 W/m 22,5 km/h (4 Bft) 97,87 %
18.02.2023 15:08 10,0 C 9,4 C 6,7 C 98 % 1019,9 hPa 0,0 l/m 0 min 0 min 63 W/m 12,9 km/h (3 Bft) 100,00 %
18.02.2023 15:10 10,1 C 9,4 C 6,7 C 98 % 1019,8 hPa 0,0 l/m 0 min 0 min 63 W/m 16,1 km/h (3 Bft) 97,87 %
18.02.2023 15:12 10,1 C 9,4 C 6,7 C 98 % 1019,8 hPa 0,0 l/m 0 min 2 min 52 W/m 16,1 km/h (3 Bft) 100,00 %
18.02.2023 15:14 10,1 C 9,4 C 6,7 C 98 % 1019,8 hPa 0,0 l/m 0 min 0 min 54 W/m 12,9 km/h (3 Bft) 100,00 %
18.02.2023 15:16 10,1 C 9,4 C 6,7 C 98 % 1019,9 hPa 0,0 l/m 0 min 2 min 51 W/m 19,3 km/h (3 Bft) 100,00 %
18.02.2023 15:18 10,1 C 9,4 C 6,7 C 98 % 1019,9 hPa 0,0 l/m 0 min 2 min 47 W/m 16,1 km/h (3 Bft) 100,00 %
18.02.2023 15:20 10,1 C 9,4 C 6,7 C 98 % 1019,9 hPa 0,0 l/m 0 min 0 min 42 W/m 12,9 km/h (3 Bft) 100,00 %
18.02.2023 15:22 10,1 C 9,4 C 6,7 C 97 % 1019,9 hPa 0,0 l/m 0 min 2 min 43 W/m 16,1 km/h (3 Bft) 97,83 %
18.02.2023 15:24 10,1 C 9,4 C 6,7 C 97 % 1019,8 hPa 0,0 l/m 0 min 0 min 52 W/m 16,1 km/h (3 Bft) 86,00 %
18.02.2023 15:26 10,1 C 9,4 C 6,7 C 97 % 1019,9 hPa 0,0 l/m 0 min 0 min 46 W/m 16,1 km/h (3 Bft) 50,00 %
18.02.2023 15:28 10,1 C 9,4 C 6,7 C 97 % 1019,9 hPa 0,0 l/m 0 min 2 min 44 W/m 16,1 km/h (3 Bft) 97,87 %
18.02.2023 15:30 10,1 C 9,4 C 6,7 C 97 % 1019,8 hPa 0,0 l/m 0 min 0 min 41 W/m 19,3 km/h (3 Bft) 97,87 %
18.02.2023 15:32 10,1 C 9,4 C 6,7 C 97 % 1019,8 hPa 0,0 l/m 0 min 0 min 47 W/m 16,1 km/h (3 Bft) 97,87 %
18.02.2023 15:34 10,1 C 9,4 C 6,7 C 97 % 1019,8 hPa 0,0 l/m 0 min 0 min 59 W/m 19,3 km/h (3 Bft) 97,87 %
18.02.2023 15:36 10,1 C 9,4 C 6,7 C 97 % 1019,7 hPa 0,0 l/m 0 min 0 min 52 W/m 16,1 km/h (3 Bft) 97,83 %
18.02.2023 15:38 10,1 C 10,0 C 6,7 C 97 % 1019,8 hPa 0,0 l/m 0 min 0 min 66 W/m 19,3 km/h (3 Bft) 97,87 %
18.02.2023 15:40 10,2 C 10,0 C 6,7 C 97 % 1019,7 hPa 0,0 l/m 0 min 0 min 55 W/m 35,4 km/h (5 Bft) 97,87 %
18.02.2023 15:42 10,2 C 10,0 C 6,7 C 97 % 1019,7 hPa 0,0 l/m 0 min 0 min 50 W/m 19,3 km/h (3 Bft) 95,74 %
18.02.2023 15:44 10,2 C 10,0 C 6,7 C 97 % 1019,7 hPa 0,0 l/m 0 min 0 min 55 W/m 29,0 km/h (5 Bft) 97,87 %
18.02.2023 15:46 10,2 C 10,0 C 6,7 C 97 % 1019,7 hPa 0,0 l/m 0 min 0 min 53 W/m 19,3 km/h (3 Bft) 97,87 %
18.02.2023 15:48 10,2 C 10,0 C 6,7 C 97 % 1019,8 hPa 0,0 l/m 0 min 0 min 39 W/m 16,1 km/h (3 Bft) 97,83 %
18.02.2023 15:50 10,2 C 10,0 C 6,7 C 97 % 1019,8 hPa 0,0 l/m 0 min 0 min 36 W/m 16,1 km/h (3 Bft) 97,87 %
18.02.2023 15:52 10,2 C 10,0 C 6,7 C 97 % 1019,8 hPa 0,0 l/m 0 min 0 min 31 W/m 16,1 km/h (3 Bft) 95,74 %
18.02.2023 15:54 10,2 C 10,0 C 6,7 C 97 % 1019,7 hPa 0,0 l/m 0 min 0 min 28 W/m 16,1 km/h (3 Bft) 93,62 %
18.02.2023 15:56 10,2 C 9,4 C 6,7 C 97 % 1019,8 hPa 0,0 l/m 0 min 0 min 28 W/m 16,1 km/h (3 Bft) 95,74 %
18.02.2023 15:58 10,2 C 10,0 C 6,7 C 97 % 1019,7 hPa 0,0 l/m 0 min 0 min 41 W/m 12,9 km/h (3 Bft) 93,62 %
18.02.2023 16:00 10,2 C 10,0 C 6,7 C 97 % 1019,7 hPa 0,0 l/m 0 min 0 min 42 W/m 16,1 km/h (3 Bft) 95,74 %
18.02.2023 16:02 10,2 C 10,0 C 6,7 C 97 % 1019,7 hPa 0,0 l/m 0 min 0 min 41 W/m 12,9 km/h (3 Bft) 93,48 %
18.02.2023 16:04 10,2 C 10,0 C 6,7 C 97 % 1019,7 hPa 0,0 l/m 0 min 0 min 45 W/m 16,1 km/h (3 Bft) 93,62 %
18.02.2023 16:06 10,3 C 10,0 C 6,7 C 97 % 1019,7 hPa 0,0 l/m 0 min 0 min 46 W/m 19,3 km/h (3 Bft) 95,74 %
18.02.2023 16:08 10,3 C 9,4 C 6,7 C 97 % 1019,7 hPa 0,0 l/m 0 min 0 min 35 W/m 19,3 km/h (3 Bft) 93,62 %
18.02.2023 16:10 10,2 C 9,4 C 6,7 C 97 % 1019,8 hPa 0,0 l/m 0 min 0 min 36 W/m 16,1 km/h (3 Bft) 95,74 %
18.02.2023 16:12 10,3 C 9,4 C 6,7 C 97 % 1019,6 hPa 0,0 l/m 0 min 0 min 43 W/m 19,3 km/h (3 Bft) 91,49 %
18.02.2023 16:14 10,2 C 9,4 C 6,7 C 97 % 1019,6 hPa 0,0 l/m 0 min 0 min 36 W/m 22,5 km/h (4 Bft) 93,48 %
18.02.2023 16:16 10,2 C 9,4 C 6,7 C 97 % 1019,7 hPa 0,0 l/m 0 min 0 min 27 W/m 25,7 km/h (4 Bft) 91,49 %
18.02.2023 16:18 10,2 C 9,4 C 6,7 C 97 % 1019,7 hPa 0,0 l/m 0 min 0 min 19 W/m 19,3 km/h (3 Bft) 93,62 %
18.02.2023 16:20 10,2 C 9,4 C 6,7 C 97 % 1019,8 hPa 0,0 l/m 0 min 0 min 19 W/m 16,1 km/h (3 Bft) 94,44 %
18.02.2023 16:22 10,2 C 9,4 C 6,7 C 97 % 1019,8 hPa 0,0 l/m 0 min 0 min 15 W/m 16,1 km/h (3 Bft) 95,74 %
18.02.2023 16:24 10,2 C 9,4 C 6,7 C 97 % 1019,8 hPa 0,0 l/m 0 min 0 min 14 W/m 19,3 km/h (3 Bft) 94,83 %
18.02.2023 16:26 10,2 C 9,4 C 6,7 C 97 % 1019,9 hPa 0,0 l/m 0 min 0 min 14 W/m 16,1 km/h (3 Bft) 94,29 %
18.02.2023 16:28 10,2 C 9,4 C 6,7 C 97 % 1019,8 hPa 0,0 l/m 0 min 0 min 20 W/m 22,5 km/h (4 Bft) 97,87 %
18.02.2023 16:30 10,2 C 10,0 C 6,7 C 97 % 1019,8 hPa 0,0 l/m 0 min 0 min 21 W/m 16,1 km/h (3 Bft) 95,74 %
18.02.2023 16:32 10,3 C 10,0 C 6,7 C 97 % 1019,8 hPa 0,0 l/m 0 min 0 min 23 W/m 16,1 km/h (3 Bft) 97,87 %
18.02.2023 16:34 10,3 C 10,0 C 6,7 C 97 % 1019,8 hPa 0,0 l/m 0 min 0 min 24 W/m 22,5 km/h (4 Bft) 97,87 %
18.02.2023 16:36 10,3 C 10,0 C 6,7 C 97 % 1019,8 hPa 0,0 l/m 0 min 0 min 25 W/m 19,3 km/h (3 Bft) 93,62 %
18.02.2023 16:38 10,3 C 10,0 C 6,7 C 97 % 1019,8 hPa 0,0 l/m 0 min 0 min 26 W/m 22,5 km/h (4 Bft) 97,83 %
18.02.2023 16:40 10,3 C 10,0 C 6,7 C 97 % 1019,8 hPa 0,0 l/m 0 min 0 min 23 W/m 16,1 km/h (3 Bft) 97,87 %
18.02.2023 16:42 10,3 C 10,0 C 6,7 C 97 % 1019,8 hPa 0,0 l/m 0 min 0 min 19 W/m 32,2 km/h (5 Bft) 95,74 %
18.02.2023 16:44 10,3 C 10,0 C 6,7 C 97 % 1019,7 hPa 0,0 l/m 0 min 0 min 18 W/m 22,5 km/h (4 Bft) 97,87 %
18.02.2023 16:46 10,3 C 10,0 C 6,7 C 97 % 1019,9 hPa 0,0 l/m 0 min 0 min 18 W/m 19,3 km/h (3 Bft) 95,74 %
18.02.2023 16:48 10,3 C 10,0 C 6,7 C 97 % 1019,9 hPa 0,0 l/m 0 min 0 min 19 W/m 16,1 km/h (3 Bft) 95,74 %
18.02.2023 16:50 10,3 C 10,0 C 6,7 C 97 % 1019,8 hPa 0,0 l/m 0 min 0 min 19 W/m 16,1 km/h (3 Bft) 95,74 %
18.02.2023 16:52 10,3 C 10,0 C 6,7 C 97 % 1019,8 hPa 0,0 l/m 0 min 0 min 20 W/m 22,5 km/h (4 Bft) 100,00 %
18.02.2023 16:54 10,3 C 10,0 C 6,7 C 97 % 1019,9 hPa 0,0 l/m 0 min 0 min 22 W/m 22,5 km/h (4 Bft) 95,74 %
18.02.2023 16:56 10,3 C 10,0 C 6,7 C 97 % 1019,8 hPa 0,0 l/m 0 min 0 min 22 W/m 16,1 km/h (3 Bft) 100,00 %
18.02.2023 16:58 10,4 C 10,0 C 6,7 C 96 % 1019,8 hPa 0,0 l/m 0 min 0 min 25 W/m 12,9 km/h (3 Bft) 97,87 %
18.02.2023 17:00 10,4 C 10,0 C 6,7 C 96 % 1019,8 hPa 0,0 l/m 0 min 0 min 25 W/m 9,7 km/h (2 Bft) 95,74 %
18.02.2023 17:02 10,4 C 10,0 C 6,7 C 96 % 1019,9 hPa 0,0 l/m 0 min 0 min 23 W/m 16,1 km/h (3 Bft) 100,00 %
18.02.2023 17:04 10,4 C 10,0 C 6,7 C 97 % 1019,8 hPa 0,0 l/m 0 min 0 min 18 W/m 16,1 km/h (3 Bft) 100,00 %
18.02.2023 17:06 10,4 C 10,0 C 6,7 C 96 % 1019,8 hPa 0,0 l/m 0 min 0 min 14 W/m 19,3 km/h (3 Bft) 98,28 %
18.02.2023 17:08 10,4 C 10,0 C 6,7 C 96 % 1019,8 hPa 0,0 l/m 0 min 0 min 14 W/m 22,5 km/h (4 Bft) 97,87 %
18.02.2023 17:10 10,4 C 10,0 C 6,7 C 96 % 1019,8 hPa 0,0 l/m 0 min 0 min 12 W/m 19,3 km/h (3 Bft) 100,00 %
18.02.2023 17:12 10,4 C 10,0 C 6,7 C 96 % 1019,8 hPa 0,0 l/m 0 min 0 min 11 W/m 22,5 km/h (4 Bft) 97,87 %
18.02.2023 17:14 10,4 C 10,0 C 7,2 C 96 % 1019,8 hPa 0,0 l/m 0 min 0 min 11 W/m 22,5 km/h (4 Bft) 97,87 %
18.02.2023 17:16 10,4 C 10,0 C 7,2 C 96 % 1019,8 hPa 0,0 l/m 0 min 0 min 9 W/m 29,0 km/h (5 Bft) 100,00 %
18.02.2023 17:18 10,4 C 10,0 C 7,2 C 96 % 1019,8 hPa 0,0 l/m 0 min 0 min 8 W/m 19,3 km/h (3 Bft) 97,87 %
18.02.2023 17:20 10,4 C 10,0 C 7,2 C 96 % 1019,8 hPa 0,0 l/m 0 min 0 min 6 W/m 16,1 km/h (3 Bft) 100,00 %
18.02.2023 17:22 10,4 C 10,0 C 6,7 C 96 % 1019,8 hPa 0,0 l/m 0 min 0 min 3 W/m 22,5 km/h (4 Bft) 100,00 %
18.02.2023 17:24 10,4 C 10,0 C 6,7 C 96 % 1019,9 hPa 0,0 l/m 0 min 0 min 0 W/m 16,1 km/h (3 Bft) 97,87 %
18.02.2023 17:26 10,4 C 10,0 C 6,7 C 96 % 1019,9 hPa 0,0 l/m 0 min 0 min 0 W/m 16,1 km/h (3 Bft) 100,00 %
18.02.2023 17:28 10,4 C 10,0 C 6,7 C 96 % 1019,8 hPa 0,0 l/m 0 min 0 min 0 W/m 12,9 km/h (3 Bft) 100,00 %
18.02.2023 17:30 10,4 C 10,0 C 6,7 C 96 % 1019,7 hPa 0,0 l/m 0 min 0 min 0 W/m 12,9 km/h (3 Bft) 97,83 %
18.02.2023 17:32 10,4 C 10,0 C 6,7 C 96 % 1019,6 hPa 0,0 l/m 0 min 0 min 0 W/m 12,9 km/h (3 Bft) 100,00 %
18.02.2023 17:34 10,4 C 10,0 C 6,7 C 96 % 1019,6 hPa 0,0 l/m 0 min 0 min 0 W/m 16,1 km/h (3 Bft) 100,00 %
18.02.2023 17:36 10,4 C 10,0 C 6,7 C 96 % 1019,7 hPa 0,0 l/m 0 min 0 min 0 W/m 12,9 km/h (3 Bft) 97,87 %
18.02.2023 17:38 10,4 C 10,0 C 6,7 C 96 % 1019,8 hPa 0,0 l/m 0 min 0 min 0 W/m 16,1 km/h (3 Bft) 100,00 %
18.02.2023 17:40 10,4 C 10,0 C 6,7 C 96 % 1019,9 hPa 0,0 l/m 0 min 0 min 0 W/m 16,1 km/h (3 Bft) 97,87 %
18.02.2023 17:42 10,4 C 10,0 C 6,7 C 96 % 1019,8 hPa 0,0 l/m 0 min 0 min 0 W/m 19,3 km/h (3 Bft) 95,74 %
18.02.2023 17:44 10,4 C 10,0 C 6,7 C 96 % 1019,8 hPa 0,0 l/m 0 min 0 min 0 W/m 16,1 km/h (3 Bft) 100,00 %
18.02.2023 17:46 10,4 C 10,0 C 6,7 C 96 % 1019,8 hPa 0,0 l/m 0 min 0 min 0 W/m 19,3 km/h (3 Bft) 97,87 %
18.02.2023 17:48 10,4 C 10,0 C 6,7 C 96 % 1019,8 hPa 0,0 l/m 0 min 0 min 0 W/m 19,3 km/h (3 Bft) 97,87 %
18.02.2023 17:50 10,4 C 10,0 C 6,7 C 96 % 1019,8 hPa 0,0 l/m 0 min 0 min 0 W/m 16,1 km/h (3 Bft) 97,87 %
18.02.2023 17:52 10,4 C 10,0 C 6,7 C 96 % 1019,9 hPa 0,0 l/m 0 min 0 min 0 W/m 25,7 km/h (4 Bft) 97,87 %
18.02.2023 17:54 10,4 C 10,0 C 6,7 C 96 % 1019,7 hPa 0,0 l/m 0 min 0 min 0 W/m 12,9 km/h (3 Bft) 97,87 %
18.02.2023 17:56 10,4 C 10,0 C 6,7 C 96 % 1019,8 hPa 0,0 l/m 0 min 0 min 0 W/m 22,5 km/h (4 Bft) 91,30 %
18.02.2023 17:58 10,4 C 10,0 C 6,7 C 96 % 1019,9 hPa 0,0 l/m 0 min 0 min 0 W/m 9,7 km/h (2 Bft) 97,87 %
18.02.2023 18:00 10,4 C 10,0 C 6,7 C 96 % 1019,8 hPa 0,0 l/m 0 min 0 min 0 W/m 16,1 km/h (3 Bft) 97,87 %
18.02.2023 18:02 10,4 C 10,0 C 6,7 C 96 % 1019,9 hPa 0,0 l/m 0 min 0 min 0 W/m 6,4 km/h (2 Bft) 95,74 %
18.02.2023 18:04 10,4 C 10,0 C 6,7 C 96 % 1019,9 hPa 0,0 l/m 0 min 0 min 0 W/m 6,4 km/h (2 Bft) 97,87 %
18.02.2023 18:07 10,4 C 10,0 C 6,7 C 96 % 1019,9 hPa 0,0 l/m 0 min 0 min 0 W/m 12,9 km/h (3 Bft) 98,57 %
18.02.2023 18:08 10,4 C 10,0 C 6,7 C 96 % 1019,9 hPa 0,0 l/m 0 min 0 min 0 W/m 6,4 km/h (2 Bft) 100,00 %
18.02.2023 18:12 10,4 C 10,0 C 6,7 C 96 % 1019,9 hPa 0,0 l/m 0 min 0 min 0 W/m 12,9 km/h (3 Bft) 98,00 %
18.02.2023 18:14 10,4 C 10,0 C 6,7 C 96 % 1020,0 hPa 0,0 l/m 0 min 0 min 0 W/m 19,3 km/h (3 Bft) 97,87 %
18.02.2023 18:16 10,4 C 10,0 C 6,7 C 96 % 1019,9 hPa 0,0 l/m 0 min 0 min 0 W/m 16,1 km/h (3 Bft) 100,00 %
18.02.2023 18:18 10,4 C 10,0 C 6,7 C 96 % 1019,9 hPa 0,0 l/m 0 min 0 min 0 W/m 16,1 km/h (3 Bft) 97,87 %
18.02.2023 18:20 10,4 C 10,0 C 6,7 C 96 % 1019,9 hPa 0,0 l/m 0 min 0 min 0 W/m 16,1 km/h (3 Bft) 97,87 %
18.02.2023 18:22 10,4 C 10,0 C 6,7 C 96 % 1019,9 hPa 0,0 l/m 0 min 0 min 0 W/m 9,7 km/h (2 Bft) 100,00 %
18.02.2023 18:24 10,4 C 10,0 C 6,7 C 96 % 1020,0 hPa 0,0 l/m 0 min 0 min 0 W/m 16,1 km/h (3 Bft) 100,00 %
18.02.2023 18:26 10,4 C 10,0 C 6,7 C 96 % 1020,0 hPa 0,0 l/m 0 min 0 min 0 W/m 19,3 km/h (3 Bft) 100,00 %
18.02.2023 18:28 10,4 C 9,4 C 6,7 C 96 % 1019,9 hPa 0,0 l/m 0 min 2 min 0 W/m 19,3 km/h (3 Bft) 98,11 %
18.02.2023 18:30 10,4 C 9,4 C 6,7 C 96 % 1020,0 hPa 0,0 l/m 0 min 2 min 0 W/m 16,1 km/h (3 Bft) 96,00 %
18.02.2023 18:32 10,4 C 9,4 C 6,7 C 96 % 1020,0 hPa 0,0 l/m 0 min 2 min 0 W/m 12,9 km/h (3 Bft) 97,96 %
18.02.2023 18:34 10,4 C 9,4 C 6,7 C 96 % 1020,0 hPa 0,0 l/m 0 min 2 min 0 W/m 12,9 km/h (3 Bft) 97,87 %
18.02.2023 18:36 10,4 C 9,4 C 6,7 C 96 % 1020,0 hPa 0,0 l/m 0 min 2 min 0 W/m 25,7 km/h (4 Bft) 97,87 %
18.02.2023 18:38 10,4 C 9,4 C 6,7 C 96 % 1020,0 hPa 0,0 l/m 0 min 2 min 0 W/m 12,9 km/h (3 Bft) 95,74 %
18.02.2023 18:40 10,3 C 9,4 C 6,7 C 96 % 1020,0 hPa 0,0 l/m 0 min 0 min 0 W/m 12,9 km/h (3 Bft) 94,29 %
18.02.2023 18:42 10,3 C 9,4 C 6,7 C 96 % 1020,0 hPa 0,0 l/m 0 min 0 min 0 W/m 16,1 km/h (3 Bft) 95,74 %
18.02.2023 18:44 10,3 C 9,4 C 6,7 C 96 % 1020,0 hPa 0,0 l/m 0 min 0 min 0 W/m 12,9 km/h (3 Bft) 97,87 %
18.02.2023 18:46 10,3 C 9,4 C 6,7 C 96 % 1019,9 hPa 0,2 l/m 0 min 0 min 0 W/m 12,9 km/h (3 Bft) 95,74 %
18.02.2023 18:48 10,3 C 9,4 C 6,7 C 96 % 1020,0 hPa 0,0 l/m 0 min 0 min 0 W/m 22,5 km/h (4 Bft) 95,74 %
18.02.2023 18:50 10,2 C 9,4 C 6,7 C 96 % 1020,0 hPa 0,0 l/m 0 min 0 min 0 W/m 12,9 km/h (3 Bft) 95,65 %
18.02.2023 18:52 10,2 C 9,4 C 6,7 C 96 % 1020,0 hPa 0,0 l/m 0 min 2 min 0 W/m 22,5 km/h (4 Bft) 95,74 %
18.02.2023 18:54 10,2 C 9,4 C 6,7 C 96 % 1020,0 hPa 0,0 l/m 0 min 2 min 0 W/m 6,4 km/h (2 Bft) 93,62 %
18.02.2023 18:56 10,2 C 9,4 C 6,7 C 96 % 1020,0 hPa 0,0 l/m 0 min 0 min 0 W/m 9,7 km/h (2 Bft) 93,62 %
18.02.2023 18:58 10,2 C 9,4 C 6,7 C 96 % 1020,0 hPa 0,0 l/m 0 min 0 min 0 W/m 16,1 km/h (3 Bft) 95,74 %
18.02.2023 19:00 10,2 C 9,4 C 6,7 C 96 % 1019,9 hPa 0,0 l/m 0 min 0 min 0 W/m 16,1 km/h (3 Bft) 95,74 %
18.02.2023 19:02 10,2 C 9,4 C 6,7 C 97 % 1020,0 hPa 0,0 l/m 0 min 0 min 0 W/m 19,3 km/h (3 Bft) 97,83 %
18.02.2023 19:04 10,2 C 9,4 C 6,7 C 97 % 1019,9 hPa 0,0 l/m 0 min 0 min 0 W/m 12,9 km/h (3 Bft) 93,62 %
18.02.2023 19:06 10,1 C 9,4 C 6,7 C 97 % 1019,9 hPa 0,0 l/m 0 min 0 min 0 W/m 16,1 km/h (3 Bft) 96,61 %
18.02.2023 19:08 10,1 C 9,4 C 6,7 C 97 % 1020,0 hPa 0,0 l/m 0 min 0 min 0 W/m 12,9 km/h (3 Bft) 91,43 %
18.02.2023 19:10 10,1 C 9,4 C 6,7 C 97 % 1020,0 hPa 0,0 l/m 0 min 0 min 0 W/m 16,1 km/h (3 Bft) 95,74 %
18.02.2023 19:12 10,1 C 9,4 C 6,7 C 97 % 1020,0 hPa 0,0 l/m 0 min 0 min 0 W/m 12,9 km/h (3 Bft) 95,74 %
18.02.2023 19:14 10,1 C 9,4 C 6,7 C 97 % 1020,0 hPa 0,0 l/m 0 min 0 min 0 W/m 19,3 km/h (3 Bft) 96,36 %
18.02.2023 19:16 10,1 C 9,4 C 6,7 C 97 % 1020,1 hPa 0,0 l/m 0 min 0 min 0 W/m 12,9 km/h (3 Bft) 95,92 %
18.02.2023 19:18 10,1 C 9,4 C 6,7 C 97 % 1020,0 hPa 0,0 l/m 0 min 0 min 0 W/m 12,9 km/h (3 Bft) 97,87 %
18.02.2023 19:20 10,1 C 9,4 C 6,7 C 97 % 1020,0 hPa 0,2 l/m 0 min 2 min 0 W/m 16,1 km/h (3 Bft) 97,87 %
18.02.2023 19:22 10,1 C 9,4 C 6,7 C 97 % 1020,0 hPa 0,0 l/m 0 min 0 min 0 W/m 6,4 km/h (2 Bft) 97,87 %
18.02.2023 19:24 10,1 C 9,4 C 6,7 C 97 % 1020,0 hPa 0,0 l/m 0 min 2 min 0 W/m 12,9 km/h (3 Bft) 95,74 %
18.02.2023 19:26 10,1 C 9,4 C 6,7 C 97 % 1020,0 hPa 0,0 l/m 0 min 2 min 0 W/m 12,9 km/h (3 Bft) 91,89 %
18.02.2023 19:28 10,1 C 9,4 C 6,7 C 97 % 1020,1 hPa 0,0 l/m 0 min 2 min 0 W/m 16,1 km/h (3 Bft) 100,00 %
18.02.2023 19:30 10,1 C 9,4 C 6,7 C 97 % 1020,0 hPa 0,0 l/m 0 min 2 min 0 W/m 16,1 km/h (3 Bft) 100,00 %
18.02.2023 19:32 10,1 C 9,4 C 6,7 C 97 % 1020,0 hPa 0,0 l/m 0 min 0 min 0 W/m 16,1 km/h (3 Bft) 100,00 %
18.02.2023 19:34 10,1 C 9,4 C 6,7 C 97 % 1020,0 hPa 0,0 l/m 0 min 0 min 0 W/m 16,1 km/h (3 Bft) 95,74 %
18.02.2023 19:36 10,1 C 9,4 C 6,7 C 97 % 1020,0 hPa 0,0 l/m 0 min 0 min 0 W/m 12,9 km/h (3 Bft) 100,00 %
18.02.2023 19:38 10,1 C 9,4 C 6,7 C 97 % 1020,0 hPa 0,0 l/m 0 min 0 min 0 W/m 9,7 km/h (2 Bft) 100,00 %
18.02.2023 19:40 10,1 C 9,4 C 6,7 C 97 % 1020,0 hPa 0,0 l/m 0 min 0 min 0 W/m 6,4 km/h (2 Bft) 95,65 %
18.02.2023 19:42 10,1 C 9,4 C 6,7 C 97 % 1020,0 hPa 0,2 l/m 0 min 0 min 0 W/m 12,9 km/h (3 Bft) 97,87 %
18.02.2023 19:44 10,0 C 9,4 C 6,7 C 97 % 1019,9 hPa 0,0 l/m 0 min 0 min 0 W/m 12,9 km/h (3 Bft) 97,87 %
18.02.2023 19:46 10,0 C 9,4 C 6,7 C 97 % 1019,9 hPa 0,0 l/m 0 min 0 min 0 W/m 12,9 km/h (3 Bft) 97,87 %
18.02.2023 19:48 10,0 C 8,9 C 6,7 C 97 % 1019,9 hPa 0,0 l/m 0 min 0 min 0 W/m 6,4 km/h (2 Bft) 97,87 %
18.02.2023 19:50 10,0 C 9,4 C 6,7 C 97 % 1019,8 hPa 0,0 l/m 0 min 0 min 0 W/m 16,1 km/h (3 Bft) 97,87 %
18.02.2023 19:52 10,0 C 9,4 C 6,7 C 97 % 1019,9 hPa 0,0 l/m 0 min 0 min 0 W/m 16,1 km/h (3 Bft) 97,87 %
18.02.2023 19:54 10,0 C 9,4 C 6,7 C 97 % 1019,8 hPa 0,0 l/m 0 min 0 min 0 W/m 16,1 km/h (3 Bft) 97,87 %
18.02.2023 19:56 9,9 C 9,4 C 6,7 C 98 % 1019,9 hPa 0,0 l/m 0 min 0 min 0 W/m 12,9 km/h (3 Bft) 95,65 %
18.02.2023 19:58 9,9 C 9,4 C 6,7 C 98 % 1019,9 hPa 0,0 l/m 0 min 0 min 0 W/m 12,9 km/h (3 Bft) 97,87 %
18.02.2023 20:00 9,9 C 9,4 C 6,7 C 98 % 1019,9 hPa 0,0 l/m 0 min 0 min 0 W/m 12,9 km/h (3 Bft) 97,87 %
18.02.2023 20:02 9,9 C 9,4 C 6,7 C 98 % 1019,9 hPa 0,0 l/m 0 min 0 min 0 W/m 16,1 km/h (3 Bft) 97,87 %
18.02.2023 20:04 9,9 C 9,4 C 6,7 C 98 % 1019,9 hPa 0,0 l/m 0 min 0 min 0 W/m 16,1 km/h (3 Bft) 97,87 %
18.02.2023 20:06 9,9 C 9,4 C 6,7 C 98 % 1019,9 hPa 0,0 l/m 0 min 0 min 0 W/m 12,9 km/h (3 Bft) 94,92 %
18.02.2023 20:08 9,9 C 9,4 C 6,7 C 98 % 1019,8 hPa 0,0 l/m 0 min 0 min 0 W/m 12,9 km/h (3 Bft) 97,22 %
18.02.2023 20:10 9,9 C 9,4 C 6,7 C 98 % 1019,9 hPa 0,0 l/m 0 min 0 min 0 W/m 12,9 km/h (3 Bft) 100,00 %
18.02.2023 20:12 9,9 C 9,4 C 6,7 C 98 % 1019,8 hPa 0,0 l/m 0 min 0 min 0 W/m 19,3 km/h (3 Bft) 97,83 %
18.02.2023 20:14 9,9 C 9,4 C 6,7 C 98 % 1019,8 hPa 0,0 l/m 0 min 0 min 0 W/m 16,1 km/h (3 Bft) 97,87 %
18.02.2023 20:16 9,9 C 9,4 C 6,7 C 98 % 1019,8 hPa 0,0 l/m 0 min 0 min 0 W/m 12,9 km/h (3 Bft) 100,00 %
18.02.2023 20:18 9,9 C 9,4 C 6,7 C 98 % 1019,8 hPa 0,0 l/m 0 min 0 min 0 W/m 16,1 km/h (3 Bft) 100,00 %
18.02.2023 20:20 9,9 C 9,4 C 6,7 C 98 % 1019,8 hPa 0,0 l/m 0 min 0 min 0 W/m 19,3 km/h (3 Bft) 100,00 %
18.02.2023 20:22 9,9 C 9,4 C 6,7 C 98 % 1019,8 hPa 0,0 l/m 0 min 0 min 0 W/m 19,3 km/h (3 Bft) 97,87 %
18.02.2023 20:24 9,9 C 9,4 C 6,7 C 98 % 1019,8 hPa 0,0 l/m 0 min 0 min 0 W/m 12,9 km/h (3 Bft) 100,00 %
18.02.2023 20:26 10,0 C 9,4 C 6,7 C 98 % 1019,8 hPa 0,0 l/m 0 min 0 min 0 W/m 16,1 km/h (3 Bft) 100,00 %
18.02.2023 20:28 10,0 C 9,4 C 6,7 C 98 % 1019,8 hPa 0,0 l/m 0 min 0 min 0 W/m 12,9 km/h (3 Bft) 100,00 %
18.02.2023 20:30 10,0 C 9,4 C 6,7 C 98 % 1019,8 hPa 0,0 l/m 0 min 0 min 0 W/m 16,1 km/h (3 Bft) 95,74 %
18.02.2023 20:32 10,0 C 9,4 C 6,7 C 98 % 1019,8 hPa 0,0 l/m 0 min 0 min 0 W/m 19,3 km/h (3 Bft) 100,00 %
18.02.2023 20:34 10,0 C 9,4 C 6,7 C 98 % 1019,8 hPa 0,0 l/m 0 min 0 min 0 W/m 19,3 km/h (3 Bft) 100,00 %
18.02.2023 20:36 10,0 C 9,4 C 6,7 C 98 % 1019,7 hPa 0,0 l/m 0 min 0 min 0 W/m 16,1 km/h (3 Bft) 100,00 %
18.02.2023 20:38 10,0 C 9,4 C 6,7 C 98 % 1019,7 hPa 0,0 l/m 0 min 0 min 0 W/m 12,9 km/h (3 Bft) 97,87 %
18.02.2023 20:40 10,0 C 9,4 C 6,7 C 98 % 1019,8 hPa 0,0 l/m 0 min 0 min 0 W/m 12,9 km/h (3 Bft) 100,00 %
18.02.2023 20:42 10,0 C 9,4 C 6,7 C 97 % 1019,8 hPa 0,0 l/m 0 min 0 min 0 W/m 16,1 km/h (3 Bft) 100,00 %
18.02.2023 20:44 10,1 C 9,4 C 6,7 C 97 % 1019,8 hPa 0,0 l/m 0 min 0 min 0 W/m 12,9 km/h (3 Bft) 100,00 %
18.02.2023 20:46 10,1 C 9,4 C 6,7 C 97 % 1019,8 hPa 0,0 l/m 0 min 0 min 0 W/m 12,9 km/h (3 Bft) 100,00 %
18.02.2023 20:48 10,1 C 9,4 C 6,7 C 97 % 1019,7 hPa 0,0 l/m 0 min 0 min 0 W/m 16,1 km/h (3 Bft) 100,00 %
18.02.2023 20:50 10,1 C 9,4 C 6,7 C 97 % 1019,8 hPa 0,0 l/m 0 min 0 min 0 W/m 16,1 km/h (3 Bft) 97,83 %
18.02.2023 20:52 10,1 C 9,4 C 6,7 C 97 % 1019,8 hPa 0,0 l/m 0 min 0 min 0 W/m 19,3 km/h (3 Bft) 97,87 %
18.02.2023 20:54 10,2 C 9,4 C 6,7 C 97 % 1019,7 hPa 0,0 l/m 0 min 0 min 0 W/m 12,9 km/h (3 Bft) 100,00 %
18.02.2023 20:56 10,1 C 9,4 C 6,7 C 97 % 1019,7 hPa 0,0 l/m 0 min 0 min 0 W/m 29,0 km/h (5 Bft) 100,00 %
18.02.2023 20:58 10,2 C 9,4 C 6,7 C 97 % 1019,7 hPa 0,0 l/m 0 min 0 min 0 W/m 19,3 km/h (3 Bft) 97,87 %
18.02.2023 21:00 10,2 C 9,4 C 6,7 C 97 % 1019,6 hPa 0,0 l/m 0 min 0 min 0 W/m 16,1 km/h (3 Bft) 100,00 %
18.02.2023 21:02 10,2 C 9,4 C 6,7 C 97 % 1019,6 hPa 0,0 l/m 0 min 0 min 0 W/m 19,3 km/h (3 Bft) 100,00 %
18.02.2023 21:04 10,2 C 9,4 C 6,7 C 97 % 1019,6 hPa 0,0 l/m 0 min 0 min 0 W/m 19,3 km/h (3 Bft) 100,00 %
18.02.2023 21:06 10,2 C 9,4 C 6,7 C 97 % 1019,7 hPa 0,0 l/m 0 min 0 min 0 W/m 12,9 km/h (3 Bft) 100,00 %
18.02.2023 21:08 10,2 C 9,4 C 6,7 C 97 % 1019,7 hPa 0,0 l/m 0 min 0 min 0 W/m 16,1 km/h (3 Bft) 97,37 %
18.02.2023 21:10 10,2 C 9,4 C 6,7 C 97 % 1019,7 hPa 0,0 l/m 0 min 0 min 0 W/m 16,1 km/h (3 Bft) 100,00 %
18.02.2023 21:12 10,2 C 9,4 C 6,7 C 97 % 1019,6 hPa 0,0 l/m 0 min 0 min 0 W/m 16,1 km/h (3 Bft) 97,87 %
18.02.2023 21:14 10,2 C 9,4 C 6,7 C 97 % 1019,5 hPa 0,0 l/m 0 min 0 min 0 W/m 16,1 km/h (3 Bft) 97,83 %
18.02.2023 21:16 10,2 C 9,4 C 6,7 C 97 % 1019,5 hPa 0,0 l/m 0 min 0 min 0 W/m 29,0 km/h (5 Bft) 100,00 %
18.02.2023 21:18 10,2 C 9,4 C 6,7 C 97 % 1019,6 hPa 0,0 l/m 0 min 0 min 0 W/m 12,9 km/h (3 Bft) 93,62 %
18.02.2023 21:20 10,2 C 9,4 C 6,7 C 97 % 1019,6 hPa 0,0 l/m 0 min 0 min 0 W/m 9,7 km/h (2 Bft) 96,43 %
18.02.2023 21:22 10,2 C 9,4 C 6,7 C 97 % 1019,6 hPa 0,0 l/m 0 min 0 min 0 W/m 35,4 km/h (5 Bft) 97,87 %
18.02.2023 21:24 10,2 C 9,4 C 6,7 C 97 % 1019,6 hPa 0,0 l/m 0 min 0 min 0 W/m 12,9 km/h (3 Bft) 97,87 %
18.02.2023 21:26 10,2 C 9,4 C 6,7 C 97 % 1019,5 hPa 0,0 l/m 0 min 0 min 0 W/m 16,1 km/h (3 Bft) 91,30 %
18.02.2023 21:28 10,2 C 9,4 C 6,7 C 97 % 1019,5 hPa 0,0 l/m 0 min 0 min 0 W/m 38,6 km/h (5 Bft) 91,49 %
18.02.2023 21:30 10,2 C 9,4 C 6,7 C 97 % 1019,4 hPa 0,0 l/m 0 min 0 min 0 W/m 6,4 km/h (2 Bft) 91,49 %
18.02.2023 21:32 10,2 C 9,4 C 6,7 C 97 % 1019,5 hPa 0,0 l/m 0 min 0 min 0 W/m 16,1 km/h (3 Bft) 93,62 %
18.02.2023 21:34 10,2 C 9,4 C 6,7 C 97 % 1019,5 hPa 0,0 l/m 0 min 0 min 0 W/m 22,5 km/h (4 Bft) 93,62 %
18.02.2023 21:36 10,2 C 9,4 C 6,7 C 97 % 1019,5 hPa 0,0 l/m 0 min 0 min 0 W/m 22,5 km/h (4 Bft) 91,49 %
18.02.2023 21:38 10,2 C 9,4 C 6,7 C 97 % 1019,5 hPa 0,0 l/m 0 min 0 min 0 W/m 22,5 km/h (4 Bft) 93,62 %
18.02.2023 21:40 10,2 C 9,4 C 6,7 C 97 % 1019,6 hPa 0,0 l/m 0 min 0 min 0 W/m 16,1 km/h (3 Bft) 93,48 %
18.02.2023 21:42 10,2 C 9,4 C 6,7 C 97 % 1019,6 hPa 0,0 l/m 0 min 0 min 0 W/m 16,1 km/h (3 Bft) 93,62 %
18.02.2023 21:44 10,2 C 9,4 C 6,7 C 97 % 1019,6 hPa 0,0 l/m 0 min 0 min 0 W/m 19,3 km/h (3 Bft) 89,58 %
18.02.2023 21:46 10,2 C 9,4 C 6,7 C 97 % 1019,6 hPa 0,0 l/m 0 min 0 min 0 W/m 22,5 km/h (4 Bft) 95,74 %
18.02.2023 21:48 10,2 C 9,4 C 6,7 C 97 % 1019,5 hPa 0,0 l/m 0 min 0 min 0 W/m 16,1 km/h (3 Bft) 93,62 %
18.02.2023 21:50 10,2 C 9,4 C 6,7 C 97 % 1019,5 hPa 0,0 l/m 0 min 0 min 0 W/m 16,1 km/h (3 Bft) 93,62 %
18.02.2023 21:52 10,2 C 9,4 C 6,7 C 97 % 1019,4 hPa 0,0 l/m 0 min 0 min 0 W/m 12,9 km/h (3 Bft) 93,48 %
18.02.2023 21:54 10,2 C 9,4 C 6,7 C 97 % 1019,3 hPa 0,0 l/m 0 min 0 min 0 W/m 12,9 km/h (3 Bft) 93,62 %
18.02.2023 21:56 10,2 C 9,4 C 6,7 C 97 % 1019,3 hPa 0,0 l/m 0 min 0 min 0 W/m 19,3 km/h (3 Bft) 95,74 %
18.02.2023 21:58 10,1 C 9,4 C 6,7 C 97 % 1019,4 hPa 0,0 l/m 0 min 0 min 0 W/m 12,9 km/h (3 Bft) 95,74 %
18.02.2023 22:00 10,1 C 9,4 C 6,7 C 97 % 1019,4 hPa 0,0 l/m 0 min 0 min 0 W/m 12,9 km/h (3 Bft) 95,74 %
18.02.2023 22:02 10,1 C 9,4 C 6,7 C 97 % 1019,4 hPa 0,0 l/m 0 min 0 min 0 W/m 12,9 km/h (3 Bft) 93,62 %
18.02.2023 22:04 10,1 C 9,4 C 6,7 C 97 % 1019,4 hPa 0,0 l/m 0 min 0 min 0 W/m 16,1 km/h (3 Bft) 97,87 %
18.02.2023 22:06 10,1 C 9,4 C 6,7 C 97 % 1019,3 hPa 0,0 l/m 0 min 0 min 0 W/m 16,1 km/h (3 Bft) 97,92 %
18.02.2023 22:08 10,1 C 9,4 C 6,7 C 97 % 1019,2 hPa 0,0 l/m 0 min 0 min 0 W/m 16,1 km/h (3 Bft) 97,14 %
18.02.2023 22:10 10,1 C 9,4 C 6,7 C 97 % 1019,2 hPa 0,0 l/m 0 min 0 min 0 W/m 9,7 km/h (2 Bft) 95,74 %
18.02.2023 22:12 10,1 C 9,4 C 6,7 C 97 % 1019,1 hPa 0,0 l/m 0 min 0 min 0 W/m 16,1 km/h (3 Bft) 97,87 %
18.02.2023 22:14 10,1 C 9,4 C 6,7 C 97 % 1019,1 hPa 0,0 l/m 0 min 0 min 0 W/m 16,1 km/h (3 Bft) 97,87 %
18.02.2023 22:16 10,1 C 9,4 C 6,7 C 97 % 1018,9 hPa 0,0 l/m 0 min 0 min 0 W/m 16,1 km/h (3 Bft) 97,87 %
18.02.2023 22:18 10,1 C 9,4 C 6,7 C 97 % 1019,0 hPa 0,0 l/m 0 min 0 min 0 W/m 19,3 km/h (3 Bft) 98,08 %
18.02.2023 22:20 10,1 C 9,4 C 6,7 C 97 % 1019,1 hPa 0,0 l/m 0 min 0 min 0 W/m 12,9 km/h (3 Bft) 97,87 %
18.02.2023 22:22 10,1 C 9,4 C 6,7 C 97 % 1019,1 hPa 0,0 l/m 0 min 0 min 0 W/m 12,9 km/h (3 Bft) 100,00 %
18.02.2023 22:24 10,1 C 9,4 C 6,7 C 97 % 1019,1 hPa 0,0 l/m 0 min 0 min 0 W/m 12,9 km/h (3 Bft) 97,87 %
18.02.2023 22:26 10,1 C 9,4 C 6,7 C 97 % 1019,1 hPa 0,0 l/m 0 min 0 min 0 W/m 25,7 km/h (4 Bft) 100,00 %
18.02.2023 22:28 10,1 C 9,4 C 6,7 C 97 % 1019,2 hPa 0,0 l/m 0 min 0 min 0 W/m 22,5 km/h (4 Bft) 100,00 %
18.02.2023 22:30 10,1 C 9,4 C 6,7 C 97 % 1019,1 hPa 0,0 l/m 0 min 0 min 0 W/m 16,1 km/h (3 Bft) 100,00 %
18.02.2023 22:32 10,1 C 9,4 C 6,7 C 97 % 1019,2 hPa 0,0 l/m 0 min 0 min 0 W/m 12,9 km/h (3 Bft) 100,00 %
18.02.2023 22:34 10,1 C 9,4 C 6,7 C 97 % 1019,2 hPa 0,0 l/m 0 min 0 min 0 W/m 16,1 km/h (3 Bft) 98,00 %
18.02.2023 22:36 10,1 C 9,4 C 6,7 C 97 % 1019,2 hPa 0,0 l/m 0 min 0 min 0 W/m 12,9 km/h (3 Bft) 100,00 %
18.02.2023 22:38 10,1 C 9,4 C 6,7 C 97 % 1019,3 hPa 0,0 l/m 0 min 0 min 0 W/m 6,4 km/h (2 Bft) 97,92 %
18.02.2023 22:40 10,1 C 9,4 C 6,7 C 97 % 1019,3 hPa 0,0 l/m 0 min 0 min 0 W/m 12,9 km/h (3 Bft) 97,87 %
18.02.2023 22:42 10,1 C 9,4 C 6,7 C 97 % 1019,2 hPa 0,0 l/m 0 min 0 min 0 W/m 25,7 km/h (4 Bft) 100,00 %
18.02.2023 22:44 10,1 C 9,4 C 6,7 C 97 % 1019,2 hPa 0,0 l/m 0 min 0 min 0 W/m 19,3 km/h (3 Bft) 54,55 %
18.02.2023 22:46 10,1 C 9,4 C 6,7 C 97 % 1019,3 hPa 0,0 l/m 0 min 0 min 0 W/m 12,9 km/h (3 Bft) 100,00 %
18.02.2023 22:48 10,1 C 9,4 C 6,7 C 97 % 1019,2 hPa 0,0 l/m 0 min 0 min 0 W/m 25,7 km/h (4 Bft) 100,00 %
18.02.2023 22:50 10,1 C 9,4 C 6,7 C 97 % 1019,2 hPa 0,0 l/m 0 min 0 min 0 W/m 22,5 km/h (4 Bft) 100,00 %
18.02.2023 22:52 10,1 C 9,4 C 6,7 C 97 % 1019,2 hPa 0,0 l/m 0 min 0 min 0 W/m 16,1 km/h (3 Bft) 97,87 %
18.02.2023 22:54 10,1 C 9,4 C 6,7 C 97 % 1019,2 hPa 0,0 l/m 0 min 2 min 0 W/m 16,1 km/h (3 Bft) 97,87 %
18.02.2023 22:56 10,1 C 9,4 C 6,7 C 97 % 1019,2 hPa 0,0 l/m 0 min 2 min 0 W/m 9,7 km/h (2 Bft) 100,00 %
18.02.2023 22:58 10,1 C 9,4 C 6,7 C 97 % 1019,2 hPa 0,0 l/m 0 min 2 min 0 W/m 12,9 km/h (3 Bft) 100,00 %
18.02.2023 23:00 10,1 C 9,4 C 6,7 C 97 % 1019,2 hPa 0,0 l/m 0 min 2 min 0 W/m 12,9 km/h (3 Bft) 100,00 %
18.02.2023 23:02 10,1 C 9,4 C 6,7 C 97 % 1019,2 hPa 0,0 l/m 0 min 2 min 0 W/m 12,9 km/h (3 Bft) 100,00 %
18.02.2023 23:04 10,1 C 9,4 C 6,7 C 97 % 1019,2 hPa 0,2 l/m 0 min 2 min 0 W/m 19,3 km/h (3 Bft) 100,00 %
18.02.2023 23:06 10,1 C 9,4 C 6,7 C 97 % 1019,2 hPa 0,0 l/m 0 min 0 min 0 W/m 16,1 km/h (3 Bft) 97,87 %
18.02.2023 23:08 10,1 C 9,4 C 6,7 C 97 % 1019,1 hPa 0,0 l/m 0 min 0 min 0 W/m 19,3 km/h (3 Bft) 100,00 %
18.02.2023 23:10 10,1 C 9,4 C 6,7 C 97 % 1019,1 hPa 0,0 l/m 0 min 0 min 0 W/m 16,1 km/h (3 Bft) 100,00 %
18.02.2023 23:12 10,1 C 9,4 C 6,7 C 97 % 1019,1 hPa 0,0 l/m 0 min 0 min 0 W/m 22,5 km/h (4 Bft) 100,00 %
18.02.2023 23:14 10,1 C 9,4 C 6,7 C 97 % 1019,0 hPa 0,0 l/m 0 min 0 min 0 W/m 12,9 km/h (3 Bft) 100,00 %
18.02.2023 23:16 10,1 C 9,4 C 6,7 C 97 % 1018,9 hPa 0,0 l/m 0 min 2 min 0 W/m 19,3 km/h (3 Bft) 100,00 %
18.02.2023 23:18 10,1 C 9,4 C 6,7 C 97 % 1018,9 hPa 0,0 l/m 0 min 2 min 0 W/m 19,3 km/h (3 Bft) 100,00 %
18.02.2023 23:20 10,1 C 9,4 C 6,7 C 97 % 1018,7 hPa 0,0 l/m 0 min 0 min 0 W/m 12,9 km/h (3 Bft) 97,87 %
18.02.2023 23:22 10,1 C 9,4 C 6,7 C 97 % 1018,7 hPa 0,0 l/m 0 min 0 min 0 W/m 25,7 km/h (4 Bft) 98,11 %
18.02.2023 23:24 10,1 C 9,4 C 6,7 C 97 % 1018,7 hPa 0,0 l/m 0 min 0 min 0 W/m 16,1 km/h (3 Bft) 97,83 %
18.02.2023 23:26 10,0 C 9,4 C 6,7 C 97 % 1018,6 hPa 0,0 l/m 0 min 0 min 0 W/m 12,9 km/h (3 Bft) 97,87 %
18.02.2023 23:28 10,1 C 9,4 C 6,7 C 97 % 1018,7 hPa 0,0 l/m 0 min 0 min 0 W/m 12,9 km/h (3 Bft) 97,87 %
18.02.2023 23:30 10,0 C 9,4 C 6,7 C 97 % 1018,6 hPa 0,0 l/m 0 min 0 min 0 W/m 12,9 km/h (3 Bft) 97,92 %
18.02.2023 23:32 10,0 C 9,4 C 6,7 C 97 % 1018,5 hPa 0,0 l/m 0 min 0 min 0 W/m 12,9 km/h (3 Bft) 95,74 %
18.02.2023 23:34 10,0 C 9,4 C 6,7 C 97 % 1018,4 hPa 0,0 l/m 0 min 0 min 0 W/m 19,3 km/h (3 Bft) 95,92 %
18.02.2023 23:36 10,0 C 9,4 C 6,7 C 97 % 1018,4 hPa 0,0 l/m 0 min 0 min 0 W/m 25,7 km/h (4 Bft) 97,83 %
18.02.2023 23:38 10,0 C 9,4 C 6,7 C 97 % 1018,5 hPa 0,0 l/m 0 min 0 min 0 W/m 19,3 km/h (3 Bft) 97,87 %
18.02.2023 23:40 10,0 C 9,4 C 6,7 C 97 % 1018,5 hPa 0,0 l/m 0 min 0 min 0 W/m 22,5 km/h (4 Bft) 97,87 %
18.02.2023 23:42 9,9 C 9,4 C 6,7 C 97 % 1018,4 hPa 0,0 l/m 0 min 0 min 0 W/m 12,9 km/h (3 Bft) 97,87 %
18.02.2023 23:44 9,9 C 9,4 C 6,7 C 97 % 1018,4 hPa 0,0 l/m 0 min 0 min 0 W/m 22,5 km/h (4 Bft) 93,75 %
18.02.2023 23:46 9,9 C 9,4 C 6,7 C 97 % 1018,5 hPa 0,0 l/m 0 min 0 min 0 W/m 12,9 km/h (3 Bft) 95,74 %
18.02.2023 23:48 9,9 C 9,4 C 6,7 C 97 % 1018,5 hPa 0,0 l/m 0 min 0 min 0 W/m 19,3 km/h (3 Bft) 95,65 %
18.02.2023 23:50 9,9 C 9,4 C 6,7 C 97 % 1018,7 hPa 0,0 l/m 0 min 0 min 0 W/m 12,9 km/h (3 Bft) 97,87 %
18.02.2023 23:52 10,0 C 9,4 C 6,7 C 97 % 1018,8 hPa 0,0 l/m 0 min 0 min 0 W/m 19,3 km/h (3 Bft) 95,74 %
18.02.2023 23:54 9,9 C 9,4 C 6,7 C 97 % 1018,7 hPa 0,0 l/m 0 min 0 min 0 W/m 16,1 km/h (3 Bft) 95,83 %
18.02.2023 23:56 9,9 C 9,4 C 6,7 C 97 % 1018,5 hPa 0,0 l/m 0 min 0 min 0 W/m 19,3 km/h (3 Bft) 97,22 %
18.02.2023 23:58 9,9 C 9,4 C 6,7 C 97 % 1018,4 hPa 0,0 l/m 0 min 0 min 0 W/m 12,9 km/h (3 Bft) 97,87 %
_ Min-Zeit 12:58 08:48 09:18 11:04 23:34 - - - - 00:24 09:58
Minimum _ 9,4 C 8,9 C 5,6 C 88 % 1018,4 hPa - - - - 6,4 km/h (2 Bft) 48,84 %
_ Max-Zeit 00:00 00:00 00:00 06:36 00:20 06:04 00:00 12:07 13:30 11:22 00:00
Maximum _ 11,1 C 10,6 C 7,2 C 98 % 1023,6 hPa 0,2 l/m 0 min 3 min 152 W/m 48,3 km/h
S-SO (6 Bft)
100,00 %
Durchschnitt _ 10,2 C 9,6 C 6,6 C 95 % 1020,3 hPa #1,6 l/m #0 min. #1:42 h 54 W/m 19,1 km/h (3 Bft) 96,79 %
© 2023 W. Hausmann